Observation data for Canadian on 11/07/2019      Previous  Date       Current Mesonet Observations  Soil Data  Daily Summary Page  Observations in Plain Language
KCA1 070600Z 00016G21KT 02/M01 A3029 RMK A01 T00221007  RH  081%=      5-min Rain = 0
KCA1 070601Z 01018KT 02/M01 A3029 RMK A01 T00221007  RH  081%=      5-min Rain = 0
KCA1 070602Z 36020G27KT 02/M01 A3029 RMK A01 T00221007  RH  081%=      5-min Rain = 0
KCA1 070603Z 01021G26KT 02/M01 A3029 RMK A01 T00211008  RH  081%=      5-min Rain = 0
KCA1 070604Z 00020G25KT 02/M01 A3029 RMK A01 T00211008  RH  081%=      5-min Rain = 0
KCA1 070605Z 00022G27KT 02/M01 A3029 RMK A01 T00211008  RH  081%=      5-min Rain = 0
KCA1 070606Z 00020KT 02/M01 A3029 RMK A01 T00211009  RH  081%=      5-min Rain = 0
KCA1 070607Z 00019KT 02/M01 A3029 RMK A01 T00211009  RH  081%=      5-min Rain = 0
KCA1 070608Z 35018G24KT 02/M01 A3029 RMK A01 T00211008  RH  081%=      5-min Rain = 0
KCA1 070609Z 00020KT 02/M01 A3029 RMK A01 T00211008  RH  081%=      5-min Rain = 0
KCA1 070610Z 36017G22KT 02/M01 A3029 RMK A01 T00211008  RH  081%=      5-min Rain = 0
KCA1 070611Z 36019KT 02/M01 A3029 RMK A01 T00211008  RH  081%=      5-min Rain = 0
KCA1 070612Z 00019KT 02/M01 A3029 RMK A01 T00211008  RH  081%=      5-min Rain = 0
KCA1 070613Z 01017KT 02/M01 A303 RMK A01 T00201009  RH  081%=      5-min Rain = 0
KCA1 070614Z 01015G20KT 02/M01 A303 RMK A01 T00211008  RH  081%=      5-min Rain = 0
KCA1 070615Z 00015G22KT 02/M01 A303 RMK A01 T00201008  RH  082%=      5-min Rain = 0
KCA1 070616Z 35019G24KT 02/M01 A303 RMK A01 T00201008  RH  082%=      5-min Rain = 0
KCA1 070617Z 36015KT 02/M01 A303 RMK A01 T00201008  RH  082%=      5-min Rain = 0
KCA1 070618Z 36019KT 02/M01 A303 RMK A01 T00201008  RH  082%=      5-min Rain = 0
KCA1 070619Z 35020KT 02/M01 A303 RMK A01 T00191008  RH  082%=      5-min Rain = 0
KCA1 070620Z 36018G23KT 02/M01 A303 RMK A01 T00191008  RH  082%=      5-min Rain = 0
KCA1 070621Z 36019KT 02/M01 A303 RMK A01 T00191008  RH  082%=      5-min Rain = 0
KCA1 070622Z 36018KT 02/M01 A303 RMK A01 T00191008  RH  083%=      5-min Rain = 0
KCA1 070623Z 36018G23KT 02/M01 A303 RMK A01 T00191007  RH  083%=      5-min Rain = 0
KCA1 070624Z 36015KT 02/M01 A3031 RMK A01 T00181008  RH  083%=      5-min Rain = 0
KCA1 070625Z 35014G19KT 02/M01 A3031 RMK A01 T00181007  RH  084%=      5-min Rain = 0
KCA1 070626Z 34013KT 02/M01 A3031 RMK A01 T00181006  RH  084%=      5-min Rain = 0
KCA1 070627Z 36017KT 02/M01 A3031 RMK A01 T00181006  RH  084%=      5-min Rain = 0
KCA1 070628Z 00015KT 02/M01 A3031 RMK A01 T00181006  RH  084%=      5-min Rain = 0
KCA1 070629Z 00016KT 02/M01 A3031 RMK A01 T00181006  RH  085%=      5-min Rain = 0
KCA1 070630Z 00014KT 02/M01 A3031 RMK A01 T00171005  RH  085%=      5-min Rain = 0
KCA1 070631Z 00016G21KT 02/M01 A3031 RMK A01 T00171005  RH  085%=      5-min Rain = 0
KCA1 070632Z 36016KT 02/M01 A3031 RMK A01 T00171005  RH  085%=      5-min Rain = 0
KCA1 070633Z 00017KT 02/M01 A3031 RMK A01 T00161005  RH  086%=      5-min Rain = 0
KCA1 070634Z 00017KT 02/M01 A3031 RMK A01 T00161005  RH  086%=      5-min Rain = 0
KCA1 070635Z 00015KT 02/M01 A3031 RMK A01 T00161005  RH  086%=      5-min Rain = 0
KCA1 070636Z 00013KT 02/M00 A3031 RMK A01 T00151004  RH  087%=      5-min Rain = 0
KCA1 070637Z 35011KT 02/M00 A3031 RMK A01 T00151004  RH  087%=      5-min Rain = 0
KCA1 070638Z 00013KT 02/M00 A3031 RMK A01 T00151003  RH  088%=      5-min Rain = 0
KCA1 070639Z 36010KT 02/M00 A3032 RMK A01 T00151003  RH  088%=      5-min Rain = 0
KCA1 070640Z 35012KT 02/M00 A3032 RMK A01 T00151003  RH  088%=      5-min Rain = 0
KCA1 070641Z 35014KT 02/M00 A3032 RMK A01 T00151002  RH  088%=      5-min Rain = 0
KCA1 070642Z 35017KT 02/M00 A3032 RMK A01 T00151003  RH  088%=      5-min Rain = 0
KCA1 070643Z 36019KT 01/M00 A3033 RMK A01 T00141004  RH  088%=      5-min Rain = 0
KCA1 070644Z 00019KT 01/M01 A3033 RMK A01 T00141005  RH  088%=      5-min Rain = 0
KCA1 070645Z 35016G21KT 01/M00 A3033 RMK A01 T00131004  RH  088%=      5-min Rain = 0
KCA1 070646Z 36016KT 01/M00 A3033 RMK A01 T00131004  RH  088%=      5-min Rain = 0
KCA1 070647Z 00019KT 01/M00 A3033 RMK A01 T00131004  RH  089%=      5-min Rain = 0
KCA1 070648Z 36019KT 01/M00 A3033 RMK A01 T00121004  RH  089%=      5-min Rain = 0
KCA1 070649Z 36016KT 01/M00 A3033 RMK A01 T00121004  RH  089%=      5-min Rain = 0
KCA1 070650Z 35016KT 01/M00 A3033 RMK A01 T00121004  RH  089%=      5-min Rain = 0
KCA1 070651Z 36014KT 01/M00 A3033 RMK A01 T00121004  RH  089%=      5-min Rain = 0
KCA1 070652Z 35015KT 01/M00 A3033 RMK A01 T00121003  RH  090%=      5-min Rain = 0
KCA1 070653Z 35017G22KT 01/M00 A3033 RMK A01 T00111003  RH  091%=      5-min Rain = 0
KCA1 070654Z 01018KT 01/M00 A3033 RMK A01 T00111003  RH  091%=      5-min Rain = 0
KCA1 070655Z 00015G20KT 01/M00 A3033 RMK A01 T00101003  RH  091%=      5-min Rain = 0
KCA1 070656Z 36015KT 01/M00 A3033 RMK A01 T00101002  RH  092%=      5-min Rain = 0
KCA1 070657Z 00017KT 01/M00 A3033 RMK A01 T00091002  RH  092%=      5-min Rain = 0
KCA1 070658Z 00022KT 01/M00 A3033 RMK A01 T00091002  RH  092%=      5-min Rain = 0
KCA1 070659Z 36016G23KT 01/M00 A3033 RMK A01 T00081003  RH  092%=      5-min Rain = 0
KCA1 070700Z 36017G23KT 01/M00 A3032 RMK A01 T00081002  RH  093%=      5-min Rain = 0
KCA1 070701Z 00017G22KT 01/M00 A3033 RMK A01 T00081002  RH  093%=      5-min Rain = 0.02
KCA1 070702Z 00015KT 01/M00 A3033 RMK A01 T00081001  RH  093%=      5-min Rain = 0
KCA1 070703Z 36014KT 01/M00 A3033 RMK A01 T00081001  RH  094%=      5-min Rain = 0
KCA1 070704Z 35013G18KT 01/00 A3033 RMK A01 T000800-0  RH  095%=      5-min Rain = 0
KCA1 070705Z 36016KT 01/00 A3033 RMK A01 T00080000  RH  095%=      5-min Rain = 0
KCA1 070706Z 35013KT 01/00 A3034 RMK A01 T00080000  RH  095%=      5-min Rain = 0
KCA1 070707Z 35016KT 01/00 A3033 RMK A01 T000700-0  RH  095%=      5-min Rain = 0
KCA1 070708Z 36013KT 01/00 A3033 RMK A01 T000700-0  RH  095%=      5-min Rain = 0
KCA1 070709Z 35018G23KT 01/00 A3033 RMK A01 T000700-0  RH  095%=      5-min Rain = 0
KCA1 070710Z 00016KT 01/M00 A3033 RMK A01 T00071001  RH  095%=      5-min Rain = 0
KCA1 070711Z 35017KT 01/M00 A3033 RMK A01 T00071001  RH  095%=      5-min Rain = 0
KCA1 070712Z 01020KT 01/M00 A3033 RMK A01 T00061001  RH  095%=      5-min Rain = 0
KCA1 070713Z 36017KT 01/M00 A3033 RMK A01 T00061003  RH  094%=      5-min Rain = 0
KCA1 070714Z 36017KT 01/M00 A3034 RMK A01 T00051003  RH  094%=      5-min Rain = 0.01
KCA1 070715Z 35016KT 01/M00 A3034 RMK A01 T00051003  RH  094%=      5-min Rain = 0
KCA1 070716Z 35017KT 01/M00 A3034 RMK A01 T00051002  RH  095%=      5-min Rain = 0
KCA1 070717Z 35015G22KT 00/M00 A3034 RMK A01 T00041003  RH  095%=      5-min Rain = 0
KCA1 070718Z 36019KT 00/M00 A3033 RMK A01 T00041003  RH  095%=      5-min Rain = 0
KCA1 070719Z 35018KT 01/M00 A3033 RMK A01 T00051003  RH  095%=      5-min Rain = 0
KCA1 070720Z 36016KT 00/M00 A3033 RMK A01 T00041003  RH  095%=      5-min Rain = 0
KCA1 070721Z 36016KT 00/M00 A3033 RMK A01 T00041003  RH  095%=      5-min Rain = 0
KCA1 070722Z 35014G19KT 00/M00 A3034 RMK A01 T00041002  RH  096%=      5-min Rain = 0
KCA1 070723Z 35011KT 00/M00 A3034 RMK A01 T00041002  RH  096%=      5-min Rain = 0
KCA1 070724Z 35011KT 00/M00 A3034 RMK A01 T00041001  RH  097%=      5-min Rain = 0
KCA1 070725Z 36016KT 00/M00 A3034 RMK A01 T00041001  RH  097%=      5-min Rain = 0
KCA1 070726Z 36017KT 00/M00 A3034 RMK A01 T00041001  RH  097%=      5-min Rain = 0
KCA1 070727Z 00018KT 00/M00 A3034 RMK A01 T00031002  RH  096%=      5-min Rain = 0.01
KCA1 070728Z 00016KT 00/M00 A3034 RMK A01 T00041002  RH  096%=      5-min Rain = 0
KCA1 070729Z 01015KT 00/M00 A3034 RMK A01 T00031003  RH  096%=      5-min Rain = 0
KCA1 070730Z 35017KT 00/M00 A3034 RMK A01 T00031003  RH  096%=      5-min Rain = 0
KCA1 070731Z 00020KT 00/M00 A3034 RMK A01 T00031003  RH  096%=      5-min Rain = 0
KCA1 070732Z 36017KT 00/M00 A3034 RMK A01 T00041003  RH  095%=      5-min Rain = 0
KCA1 070733Z 36014KT 00/M00 A3034 RMK A01 T00041003  RH  095%=      5-min Rain = 0
KCA1 070734Z 36017KT 00/M00 A3034 RMK A01 T00031003  RH  095%=      5-min Rain = 0
KCA1 070735Z 00019G24KT 00/M00 A3034 RMK A01 T00031003  RH  095%=      5-min Rain = 0
KCA1 070736Z 36017G22KT 00/M00 A3034 RMK A01 T00031004  RH  095%=      5-min Rain = 0
KCA1 070737Z 36019KT 00/M00 A3034 RMK A01 T00031004  RH  095%=      5-min Rain = 0
KCA1 070738Z 36017KT 00/M01 A3034 RMK A01 T00031005  RH  095%=      5-min Rain = 0
KCA1 070739Z 00015KT 00/M00 A3034 RMK A01 T00031004  RH  095%=      5-min Rain = 0
KCA1 070740Z 36014G19KT 00/M00 A3034 RMK A01 T00031004  RH  095%=      5-min Rain = 0
KCA1 070741Z 35015KT 00/M00 A3034 RMK A01 T00031003  RH  095%=      5-min Rain = 0
KCA1 070742Z 35015G20KT 00/M00 A3034 RMK A01 T00031003  RH  096%=      5-min Rain = 0
KCA1 070743Z 35015KT 00/M00 A3034 RMK A01 T00031003  RH  096%=      5-min Rain = 0
KCA1 070744Z 00017KT 00/M00 A3034 RMK A01 T00031003  RH  096%=      5-min Rain = 0
KCA1 070745Z 00017G24KT 00/M01 A3034 RMK A01 T00021005  RH  095%=      5-min Rain = 0
KCA1 070746Z 00018KT 00/M01 A3034 RMK A01 T00021006  RH  094%=      5-min Rain = 0
KCA1 070747Z 00019G27KT 00/M01 A3034 RMK A01 T00021007  RH  094%=      5-min Rain = 0
KCA1 070748Z 00021G27KT 00/M01 A3034 RMK A01 T00011008  RH  094%=      5-min Rain = 0
KCA1 070749Z 36020G25KT 00/M01 A3034 RMK A01 T00011008  RH  094%=      5-min Rain = 0
KCA1 070750Z 00021KT 00/01 A3034 RMK A01 T000000-9  RH  094%=      5-min Rain = 0
KCA1 070751Z 01019KT 00/01 A3033 RMK A01 T00-000-9  RH  094%=      5-min Rain = 0
KCA1 070752Z 00023G28KT M00/M01 A3033 RMK A01 T10011008  RH  094%=      5-min Rain = 0
KCA1 070753Z 00021KT 00/01 A3033 RMK A01 T00-000-8  RH  094%=      5-min Rain = 0
KCA1 070754Z 36018KT M00/M01 A3033 RMK A01 T10011009  RH  094%=      5-min Rain = 0
KCA1 070755Z 36017KT M00/M01 A3033 RMK A01 T10011008  RH  095%=      5-min Rain = 0
KCA1 070756Z 00022G27KT M00/M01 A3033 RMK A01 T10011008  RH  095%=      5-min Rain = 0
KCA1 070757Z 36019G24KT M00/M01 A3033 RMK A01 T10011008  RH  095%=      5-min Rain = 0
KCA1 070758Z 35019KT M00/M01 A3033 RMK A01 T10011008  RH  095%=      5-min Rain = 0
KCA1 070759Z 36017G22KT M00/M01 A3034 RMK A01 T10011008  RH  095%=      5-min Rain = 0
KCA1 070800Z 36018KT M00/M01 A3034 RMK A01 T10011008  RH  095%=      5-min Rain = 0
KCA1 070801Z 36017G22KT M00/M01 A3034 RMK A01 T10011008  RH  095%=      5-min Rain = 0
KCA1 070802Z 35016KT M00/M01 A3034 RMK A01 T10011007  RH  095%=      5-min Rain = 0
KCA1 070803Z 36022G27KT M00/M01 A3034 RMK A01 T10011007  RH  096%=      5-min Rain = 0
KCA1 070804Z 35020KT M00/M01 A3034 RMK A01 T10011008  RH  095%=      5-min Rain = 0
KCA1 070805Z 36018KT M00/M01 A3034 RMK A01 T10011008  RH  095%=      5-min Rain = 0
KCA1 070806Z 35017KT M00/M01 A3034 RMK A01 T10011008  RH  095%=      5-min Rain = 0
KCA1 070807Z 35018KT M00/M01 A3035 RMK A01 T10011008  RH  095%=      5-min Rain = 0
KCA1 070808Z 35018KT M00/M01 A3035 RMK A01 T10011008  RH  095%=      5-min Rain = 0
KCA1 070809Z 35018G23KT M00/M01 A3035 RMK A01 T10011008  RH  095%=      5-min Rain = 0
KCA1 070810Z 34013KT M00/M01 A3035 RMK A01 T10011008  RH  095%=      5-min Rain = 0
KCA1 070811Z 35015KT M00/M01 A3035 RMK A01 T10011007  RH  096%=      5-min Rain = 0
KCA1 070812Z 34016G22KT M00/M01 A3035 RMK A01 T10011006  RH  096%=      5-min Rain = 0
KCA1 070813Z 35019G26KT M00/M01 A3035 RMK A01 T10011006  RH  096%=      5-min Rain = 0
KCA1 070814Z 36023KT M00/M01 A3035 RMK A01 T10011007  RH  096%=      5-min Rain = 0
KCA1 070815Z 36021G26KT M00/M01 A3034 RMK A01 T10021009  RH  095%=      5-min Rain = 0
KCA1 070816Z 36021KT M00/M01 A3034 RMK A01 T10021009  RH  095%=      5-min Rain = 0
KCA1 070817Z 01020KT M00/M01 A3034 RMK A01 T10021010  RH  095%=      5-min Rain = 0
KCA1 070818Z 01022G27KT M00/M01 A3034 RMK A01 T10021010  RH  095%=      5-min Rain = 0
KCA1 070819Z 01020KT M00/M01 A3034 RMK A01 T10021010  RH  095%=      5-min Rain = 0
KCA1 070820Z 00018KT M00/M01 A3034 RMK A01 T10021010  RH  095%=      5-min Rain = 0
KCA1 070821Z 00019KT M00/M01 A3034 RMK A01 T10021009  RH  095%=      5-min Rain = 0
KCA1 070822Z 36019G25KT M00/M01 A3034 RMK A01 T10021009  RH  095%=      5-min Rain = 0
KCA1 070823Z 35020KT M00/M01 A3034 RMK A01 T10021009  RH  095%=      5-min Rain = 0
KCA1 070824Z 35021KT M00/M01 A3034 RMK A01 T10021009  RH  095%=      5-min Rain = 0
KCA1 070825Z 35020G25KT M00/M01 A3035 RMK A01 T10021010  RH  095%=      5-min Rain = 0
KCA1 070826Z 00021KT M00/M01 A3035 RMK A01 T10021010  RH  095%=      5-min Rain = 0
KCA1 070827Z 36018G27KT M00/M01 A3035 RMK A01 T10021010  RH  095%=      5-min Rain = 0
KCA1 070828Z 35016G21KT M00/M01 A3035 RMK A01 T10021009  RH  095%=      5-min Rain = 0
KCA1 070829Z 35017KT M00/M01 A3036 RMK A01 T10021008  RH  096%=      5-min Rain = 0
KCA1 070830Z 35014G19KT M00/M01 A3036 RMK A01 T10021008  RH  096%=      5-min Rain = 0
KCA1 070831Z 35017KT M00/M01 A3036 RMK A01 T10021008  RH  096%=      5-min Rain = 0
KCA1 070832Z 35016KT M00/M01 A3036 RMK A01 T10021008  RH  096%=      5-min Rain = 0
KCA1 070833Z 35014G19KT M00/M01 A3036 RMK A01 T10021008  RH  096%=      5-min Rain = 0
KCA1 070834Z 35015G21KT M00/M01 A3035 RMK A01 T10021008  RH  096%=      5-min Rain = 0.01
KCA1 070835Z 35015KT M00/M01 A3035 RMK A01 T10021007  RH  096%=      5-min Rain = 0
KCA1 070836Z 36017G23KT M00/M01 A3035 RMK A01 T10021008  RH  096%=      5-min Rain = 0
KCA1 070837Z 36022KT M00/M01 A3035 RMK A01 T10021008  RH  096%=      5-min Rain = 0
KCA1 070838Z 35018G23KT M00/M01 A3036 RMK A01 T10021009  RH  095%=      5-min Rain = 0.01
KCA1 070839Z 36019KT M00/M01 A3036 RMK A01 T10021009  RH  095%=      5-min Rain = 0
KCA1 070840Z 35015G22KT M00/M01 A3036 RMK A01 T10021008  RH  096%=      5-min Rain = 0
KCA1 070841Z 35017KT M00/M01 A3036 RMK A01 T10021008  RH  096%=      5-min Rain = 0
KCA1 070842Z 35016KT M00/M01 A3036 RMK A01 T10021007  RH  096%=      5-min Rain = 0
KCA1 070843Z 35015KT M00/M01 A3036 RMK A01 T10021008  RH  096%=      5-min Rain = 0
KCA1 070844Z 35016KT M00/M01 A3036 RMK A01 T10021008  RH  096%=      5-min Rain = 0
KCA1 070845Z 35016KT M00/M01 A3036 RMK A01 T10021007  RH  096%=      5-min Rain = 0
KCA1 070846Z 35017KT M00/M01 A3036 RMK A01 T10021007  RH  096%=      5-min Rain = 0
KCA1 070847Z 35015KT M00/M01 A3036 RMK A01 T10021007  RH  096%=      5-min Rain = 0
KCA1 070848Z 35019G25KT M00/M01 A3036 RMK A01 T10021007  RH  096%=      5-min Rain = 0
KCA1 070849Z 35020G25KT M00/M01 A3036 RMK A01 T10021008  RH  096%=      5-min Rain = 0
KCA1 070850Z 35018G23KT M00/M01 A3036 RMK A01 T10021008  RH  096%=      5-min Rain = 0
KCA1 070851Z 36018KT M00/M01 A3036 RMK A01 T10021009  RH  095%=      5-min Rain = 0
KCA1 070852Z 35016G23KT M00/M01 A3036 RMK A01 T10021009  RH  095%=      5-min Rain = 0
KCA1 070853Z 35020KT M00/M01 A3036 RMK A01 T10031010  RH  095%=      5-min Rain = 0
KCA1 070854Z 35019G24KT M00/M01 A3036 RMK A01 T10031010  RH  095%=      5-min Rain = 0
KCA1 070855Z 36016G23KT M00/M01 A3036 RMK A01 T10031011  RH  094%=      5-min Rain = 0
KCA1 070856Z 35020KT M00/M01 A3036 RMK A01 T10031011  RH  095%=      5-min Rain = 0
KCA1 070857Z 36018KT M00/M01 A3036 RMK A01 T10031011  RH  094%=      5-min Rain = 0
KCA1 070858Z 36013KT M00/M01 A3036 RMK A01 T10031011  RH  095%=      5-min Rain = 0
KCA1 070859Z 35011KT M00/M01 A3036 RMK A01 T10031009  RH  095%=      5-min Rain = 0
KCA1 070900Z 34013G18KT M00/M01 A3036 RMK A01 T10031009  RH  096%=      5-min Rain = 0
KCA1 070901Z 35017KT M00/M01 A3036 RMK A01 T10031009  RH  096%=      5-min Rain = 0
KCA1 070902Z 35015KT M00/M01 A3036 RMK A01 T10041009  RH  096%=      5-min Rain = 0
KCA1 070903Z 35017KT M00/M01 A3036 RMK A01 T10041009  RH  096%=      5-min Rain = 0
KCA1 070904Z 00016KT M00/M01 A3036 RMK A01 T10041009  RH  096%=      5-min Rain = 0
KCA1 070905Z 35017KT M00/M01 A3036 RMK A01 T10041009  RH  096%=      5-min Rain = 0
KCA1 070906Z 35013KT M00/M01 A3036 RMK A01 T10041009  RH  096%=      5-min Rain = 0
KCA1 070907Z 35017G24KT M00/M01 A3036 RMK A01 T10041010  RH  096%=      5-min Rain = 0
KCA1 070908Z 00020KT M00/M01 A3036 RMK A01 T10041010  RH  095%=      5-min Rain = 0
KCA1 070909Z 35020G26KT M00/M01 A3036 RMK A01 T10041012  RH  095%=      5-min Rain = 0
KCA1 070910Z 35020G25KT M01/M01 A3036 RMK A01 T10051012  RH  095%=      5-min Rain = 0
KCA1 070911Z 35018G23KT M01/M01 A3036 RMK A01 T10051013  RH  094%=      5-min Rain = 0
KCA1 070912Z 36020G26KT M01/M01 A3036 RMK A01 T10051012  RH  094%=      5-min Rain = 0
KCA1 070913Z 36020G26KT M01/M01 A3036 RMK A01 T10051013  RH  094%=      5-min Rain = 0
KCA1 070914Z 36017KT M01/M01 A3037 RMK A01 T10051013  RH  094%=      5-min Rain = 0
KCA1 070915Z 35021G26KT M01/M01 A3037 RMK A01 T10051013  RH  095%=      5-min Rain = 0
KCA1 070916Z 36018G24KT M01/M01 A3037 RMK A01 T10051013  RH  094%=      5-min Rain = 0
KCA1 070917Z 35022KT M01/M01 A3037 RMK A01 T10051013  RH  094%=      5-min Rain = 0
KCA1 070918Z 35021KT M01/M01 A3037 RMK A01 T10051013  RH  094%=      5-min Rain = 0
KCA1 070919Z 35021KT M01/M01 A3037 RMK A01 T10051013  RH  094%=      5-min Rain = 0
KCA1 070920Z 00021KT M01/M01 A3037 RMK A01 T10051013  RH  094%=      5-min Rain = 0
KCA1 070921Z 01017G22KT M01/M01 A3037 RMK A01 T10051014  RH  094%=      5-min Rain = 0
KCA1 070922Z 36020KT M01/M01 A3036 RMK A01 T10051014  RH  094%=      5-min Rain = 0
KCA1 070923Z 36020KT M01/M01 A3036 RMK A01 T10051013  RH  094%=      5-min Rain = 0
KCA1 070924Z 00016KT M01/M01 A3036 RMK A01 T10051013  RH  095%=      5-min Rain = 0
KCA1 070925Z 00016KT M01/M01 A3036 RMK A01 T10051012  RH  095%=      5-min Rain = 0
KCA1 070926Z 00017G22KT M01/M01 A3036 RMK A01 T10051012  RH  095%=      5-min Rain = 0
KCA1 070927Z 00020G25KT M01/M01 A3036 RMK A01 T10051012  RH  095%=      5-min Rain = 0
KCA1 070928Z 36019KT M01/M01 A3037 RMK A01 T10051013  RH  095%=      5-min Rain = 0
KCA1 070929Z 36019G25KT M01/M01 A3037 RMK A01 T10051013  RH  095%=      5-min Rain = 0
KCA1 070930Z 00020G26KT M01/M01 A3037 RMK A01 T10051013  RH  095%=      5-min Rain = 0
KCA1 070931Z 35018G23KT M01/M01 A3037 RMK A01 T10061013  RH  095%=      5-min Rain = 0
KCA1 070932Z 35016KT M01/M01 A3037 RMK A01 T10061013  RH  095%=      5-min Rain = 0
KCA1 070933Z 35017KT M01/M01 A3037 RMK A01 T10051012  RH  095%=      5-min Rain = 0
KCA1 070934Z 36018KT M01/M01 A3037 RMK A01 T10061012  RH  096%=      5-min Rain = 0
KCA1 070935Z 35015KT M01/M01 A3037 RMK A01 T10061012  RH  096%=      5-min Rain = 0
KCA1 070936Z 35016KT M01/M01 A3037 RMK A01 T10061012  RH  096%=      5-min Rain = 0
KCA1 070937Z 36016KT M01/M01 A3037 RMK A01 T10051011  RH  096%=      5-min Rain = 0
KCA1 070938Z 00015KT M01/M01 A3037 RMK A01 T10051011  RH  096%=      5-min Rain = 0
KCA1 070939Z 36019KT M01/M01 A3037 RMK A01 T10061012  RH  096%=      5-min Rain = 0
KCA1 070940Z 35016KT M01/M01 A3038 RMK A01 T10061012  RH  096%=      5-min Rain = 0
KCA1 070941Z 36014KT M01/M01 A3038 RMK A01 T10061012  RH  095%=      5-min Rain = 0
KCA1 070942Z 00014KT M01/M01 A3038 RMK A01 T10061012  RH  096%=      5-min Rain = 0
KCA1 070943Z 00018KT M01/M01 A3038 RMK A01 T10061012  RH  096%=      5-min Rain = 0
KCA1 070944Z 00016KT M01/M01 A3038 RMK A01 T10051012  RH  095%=      5-min Rain = 0
KCA1 070945Z 35015KT M01/M01 A3038 RMK A01 T10061013  RH  095%=      5-min Rain = 0
KCA1 070946Z 35013KT M01/M01 A3038 RMK A01 T10061013  RH  095%=      5-min Rain = 0
KCA1 070947Z 36018G23KT M01/M01 A3039 RMK A01 T10061013  RH  095%=      5-min Rain = 0
KCA1 070948Z 36019KT M01/M01 A3039 RMK A01 T10061014  RH  094%=      5-min Rain = 0
KCA1 070949Z 35015KT M01/M02 A3039 RMK A01 T10061015  RH  094%=      5-min Rain = 0
KCA1 070950Z 35016KT M01/M02 A3039 RMK A01 T10061015  RH  094%=      5-min Rain = 0
KCA1 070951Z 34016G22KT M01/M02 A3039 RMK A01 T10071016  RH  094%=      5-min Rain = 0
KCA1 070952Z 35016KT M01/M02 A3039 RMK A01 T10071016  RH  094%=      5-min Rain = 0
KCA1 070953Z 34013KT M01/M02 A3039 RMK A01 T10061015  RH  094%=      5-min Rain = 0
KCA1 070954Z 35013KT M01/M02 A3039 RMK A01 T10071015  RH  095%=      5-min Rain = 0
KCA1 070955Z 00018G24KT M01/M02 A3039 RMK A01 T10071015  RH  095%=      5-min Rain = 0
KCA1 070956Z 36019KT M01/M02 A3039 RMK A01 T10081016  RH  094%=      5-min Rain = 0
KCA1 070957Z 00020G25KT M01/M02 A3039 RMK A01 T10081018  RH  093%=      5-min Rain = 0
KCA1 070958Z 35015G21KT M01/M02 A3039 RMK A01 T10081019  RH  093%=      5-min Rain = 0
KCA1 070959Z 35016G21KT M01/M02 A3039 RMK A01 T10091019  RH  093%=      5-min Rain = 0
KCA1 071000Z 36014G20KT M01/M02 A304 RMK A01 T10091019  RH  093%=      5-min Rain = 0
KCA1 071001Z 35011KT M01/M02 A304 RMK A01 T10091018  RH  093%=      5-min Rain = 0
KCA1 071002Z 35013KT M01/M02 A304 RMK A01 T10091018  RH  094%=      5-min Rain = 0
KCA1 071003Z 36013KT M01/M02 A304 RMK A01 T10091017  RH  094%=      5-min Rain = 0
KCA1 071004Z 36018KT M01/M02 A304 RMK A01 T10091017  RH  094%=      5-min Rain = 0
KCA1 071005Z 34017KT M01/M02 A3039 RMK A01 T10101018  RH  094%=      5-min Rain = 0
KCA1 071006Z 36014KT M01/M02 A304 RMK A01 T10101019  RH  093%=      5-min Rain = 0
KCA1 071007Z 00017G22KT M01/M02 A304 RMK A01 T10101019  RH  094%=      5-min Rain = 0
KCA1 071008Z 00014KT M01/M02 A304 RMK A01 T10101019  RH  094%=      5-min Rain = 0
KCA1 071009Z 00016KT M01/M02 A3039 RMK A01 T10101018  RH  094%=      5-min Rain = 0
KCA1 071010Z 36020KT M01/M02 A304 RMK A01 T10101018  RH  094%=      5-min Rain = 0
KCA1 071011Z 36018G23KT M01/M02 A304 RMK A01 T10101019  RH  093%=      5-min Rain = 0
KCA1 071012Z 36018KT M01/M02 A3039 RMK A01 T10101020  RH  093%=      5-min Rain = 0
KCA1 071013Z 36017G22KT M01/M02 A3039 RMK A01 T10101020  RH  093%=      5-min Rain = 0
KCA1 071014Z 00015KT M01/M02 A3039 RMK A01 T10101020  RH  093%=      5-min Rain = 0
KCA1 071015Z 36016KT M01/M02 A304 RMK A01 T10101019  RH  093%=      5-min Rain = 0
KCA1 071016Z 00018KT M01/M02 A3039 RMK A01 T10101019  RH  094%=      5-min Rain = 0
KCA1 071017Z 36020G27KT M01/M02 A3039 RMK A01 T10101019  RH  094%=      5-min Rain = 0
KCA1 071018Z 00023KT M01/M02 A3039 RMK A01 T10101021  RH  093%=      5-min Rain = 0
KCA1 071019Z 36022KT M01/M02 A3039 RMK A01 T10101022  RH  092%=      5-min Rain = 0
KCA1 071020Z 00017KT M01/M02 A3039 RMK A01 T10111023  RH  092%=      5-min Rain = 0
KCA1 071021Z 35017G22KT M01/M02 A3039 RMK A01 T10111022  RH  092%=      5-min Rain = 0
KCA1 071022Z 35018KT M01/M02 A3039 RMK A01 T10111021  RH  093%=      5-min Rain = 0
KCA1 071023Z 35022KT M01/M02 A3039 RMK A01 T10111021  RH  093%=      5-min Rain = 0
KCA1 071024Z 36021KT M01/M02 A304 RMK A01 T10121022  RH  093%=      5-min Rain = 0
KCA1 071025Z 35018KT M01/M02 A304 RMK A01 T10121022  RH  093%=      5-min Rain = 0
KCA1 071026Z 35017KT M01/M02 A304 RMK A01 T10121021  RH  093%=      5-min Rain = 0
KCA1 071027Z 00016KT M01/M02 A304 RMK A01 T10121020  RH  094%=      5-min Rain = 0
KCA1 071028Z 35014KT M01/M02 A304 RMK A01 T10111019  RH  095%=      5-min Rain = 0
KCA1 071029Z 35013KT M01/M02 A304 RMK A01 T10121018  RH  095%=      5-min Rain = 0
KCA1 071030Z 35016KT M01/M02 A304 RMK A01 T10121018  RH  095%=      5-min Rain = 0
KCA1 071031Z 35015KT M01/M02 A3041 RMK A01 T10121018  RH  096%=      5-min Rain = 0
KCA1 071032Z 35014KT M01/M02 A3041 RMK A01 T10121018  RH  096%=      5-min Rain = 0
KCA1 071033Z 34016G21KT M01/M02 A3041 RMK A01 T10111017  RH  096%=      5-min Rain = 0
KCA1 071034Z 35017KT M01/M02 A3041 RMK A01 T10121018  RH  096%=      5-min Rain = 0
KCA1 071035Z 35014KT M01/M02 A3041 RMK A01 T10111018  RH  095%=      5-min Rain = 0
KCA1 071036Z 35014KT M01/M02 A304 RMK A01 T10121019  RH  095%=      5-min Rain = 0
KCA1 071037Z 35017KT M01/M02 A304 RMK A01 T10121019  RH  095%=      5-min Rain = 0
KCA1 071038Z 35016KT M01/M02 A304 RMK A01 T10121019  RH  095%=      5-min Rain = 0
KCA1 071039Z 35019KT M01/M02 A304 RMK A01 T10121020  RH  095%=      5-min Rain = 0
KCA1 071040Z 35015G20KT M01/M02 A304 RMK A01 T10121020  RH  094%=      5-min Rain = 0
KCA1 071041Z 36016KT M01/M02 A304 RMK A01 T10121021  RH  094%=      5-min Rain = 0
KCA1 071042Z 00016KT M01/M02 A304 RMK A01 T10131021  RH  094%=      5-min Rain = 0
KCA1 071043Z 36014KT M01/M02 A304 RMK A01 T10131021  RH  094%=      5-min Rain = 0
KCA1 071044Z 00015KT M01/M02 A304 RMK A01 T10121020  RH  095%=      5-min Rain = 0
KCA1 071045Z 36013KT M01/M02 A304 RMK A01 T10121020  RH  095%=      5-min Rain = 0
KCA1 071046Z 00013KT M01/M02 A304 RMK A01 T10131020  RH  095%=      5-min Rain = 0
KCA1 071047Z 01016KT M01/M02 A304 RMK A01 T10131020  RH  095%=      5-min Rain = 0
KCA1 071048Z 00015KT M01/M02 A304 RMK A01 T10131021  RH  095%=      5-min Rain = 0
KCA1 071049Z 01015KT M01/M02 A304 RMK A01 T10131021  RH  095%=      5-min Rain = 0
KCA1 071050Z 00015KT M01/M02 A304 RMK A01 T10131022  RH  094%=      5-min Rain = 0
KCA1 071051Z 01013KT M01/M02 A304 RMK A01 T10131023  RH  093%=      5-min Rain = 0
KCA1 071052Z 36014G19KT M01/M02 A304 RMK A01 T10141023  RH  093%=      5-min Rain = 0
KCA1 071053Z 01014KT M01/M02 A304 RMK A01 T10141023  RH  094%=      5-min Rain = 0
KCA1 071054Z 00016G22KT M01/M02 A3041 RMK A01 T10141023  RH  094%=      5-min Rain = 0
KCA1 071055Z 00015G20KT M01/M02 A3041 RMK A01 T10141024  RH  093%=      5-min Rain = 0
KCA1 071056Z 36013KT M01/M02 A3042 RMK A01 T10141023  RH  094%=      5-min Rain = 0
KCA1 071057Z 36016G21KT M01/M02 A3042 RMK A01 T10141023  RH  094%=      5-min Rain = 0
KCA1 071058Z 00021KT M01/M02 A3041 RMK A01 T10141024  RH  093%=      5-min Rain = 0
KCA1 071059Z 36020KT M01/M03 A3041 RMK A01 T10141025  RH  092%=      5-min Rain = 0
KCA1 071100Z 00016KT M01/M03 A304 RMK A01 T10141026  RH  092%=      5-min Rain = 0
KCA1 071101Z 00016G21KT M02/M03 A304 RMK A01 T10151026  RH  092%=      5-min Rain = 0
KCA1 071102Z 01014KT M02/M03 A304 RMK A01 T10151026  RH  092%=      5-min Rain = 0
KCA1 071103Z 01015KT M02/M03 A304 RMK A01 T10151025  RH  093%=      5-min Rain = 0
KCA1 071104Z 01013KT M02/M03 A304 RMK A01 T10151025  RH  093%=      5-min Rain = 0
KCA1 071105Z 01014KT M02/M02 A304 RMK A01 T10151024  RH  094%=      5-min Rain = 0
KCA1 071106Z 01012G18KT M02/M02 A304 RMK A01 T10151024  RH  094%=      5-min Rain = 0
KCA1 071107Z 01016KT M02/M02 A3039 RMK A01 T10151023  RH  095%=      5-min Rain = 0
KCA1 071108Z 01014KT M02/M02 A3039 RMK A01 T10151024  RH  094%=      5-min Rain = 0
KCA1 071109Z 00013KT M02/M02 A304 RMK A01 T10151024  RH  094%=      5-min Rain = 0
KCA1 071110Z 36014KT M02/M02 A304 RMK A01 T10151024  RH  094%=      5-min Rain = 0
KCA1 071111Z 36015KT M02/M02 A304 RMK A01 T10151024  RH  094%=      5-min Rain = 0
KCA1 071112Z 36015KT M02/M02 A3041 RMK A01 T10151024  RH  094%=      5-min Rain = 0
KCA1 071113Z 36016KT M02/M02 A3041 RMK A01 T10151024  RH  094%=      5-min Rain = 0
KCA1 071114Z 35014KT M02/M02 A3041 RMK A01 T10151024  RH  094%=      5-min Rain = 0
KCA1 071115Z 35015G22KT M02/M02 A3042 RMK A01 T10151024  RH  094%=      5-min Rain = 0
KCA1 071116Z 35015KT M02/M02 A3042 RMK A01 T10151024  RH  094%=      5-min Rain = 0
KCA1 071117Z 35013KT M02/M02 A3042 RMK A01 T10151024  RH  093%=      5-min Rain = 0
KCA1 071118Z 35011KT M02/M02 A3042 RMK A01 T10151024  RH  093%=      5-min Rain = 0
KCA1 071119Z 35010KT M02/M02 A3042 RMK A01 T10151024  RH  093%=      5-min Rain = 0
KCA1 071120Z 36013KT M02/M02 A3042 RMK A01 T10151023  RH  094%=      5-min Rain = 0
KCA1 071121Z 00015KT M02/M02 A3041 RMK A01 T10151023  RH  094%=      5-min Rain = 0
KCA1 071122Z 00012KT M02/M02 A3041 RMK A01 T10151024  RH  093%=      5-min Rain = 0
KCA1 071123Z 01011KT M02/M03 A3041 RMK A01 T10151025  RH  093%=      5-min Rain = 0
KCA1 071124Z 01010KT M02/M02 A3041 RMK A01 T10151024  RH  094%=      5-min Rain = 0
KCA1 071125Z 01009KT M02/M02 A3041 RMK A01 T10151023  RH  094%=      5-min Rain = 0
KCA1 071126Z 00011KT M02/M02 A3041 RMK A01 T10151023  RH  094%=      5-min Rain = 0
KCA1 071127Z 01013KT M02/M02 A3041 RMK A01 T10151023  RH  094%=      5-min Rain = 0
KCA1 071128Z 00010KT M02/M02 A3041 RMK A01 T10151023  RH  094%=      5-min Rain = 0
KCA1 071129Z 01010KT M02/M02 A3041 RMK A01 T10151023  RH  094%=      5-min Rain = 0
KCA1 071130Z 36011G16KT M02/M02 A3041 RMK A01 T10151023  RH  094%=      5-min Rain = 0
KCA1 071131Z 00012G17KT M02/M02 A3041 RMK A01 T10151023  RH  094%=      5-min Rain = 0
KCA1 071132Z 36010KT M02/M02 A3041 RMK A01 T10151023  RH  094%=      5-min Rain = 0
KCA1 071133Z 35010KT M02/M02 A3041 RMK A01 T10151022  RH  095%=      5-min Rain = 0
KCA1 071134Z 35013KT M02/M02 A3041 RMK A01 T10151022  RH  095%=      5-min Rain = 0
KCA1 071135Z 35014KT M02/M02 A3041 RMK A01 T10151023  RH  094%=      5-min Rain = 0
KCA1 071136Z 36015KT M02/M02 A3041 RMK A01 T10151024  RH  094%=      5-min Rain = 0
KCA1 071137Z 00011KT M02/M02 A3041 RMK A01 T10151024  RH  093%=      5-min Rain = 0
KCA1 071138Z 01010KT M02/M02 A3041 RMK A01 T10151024  RH  094%=      5-min Rain = 0
KCA1 071139Z 36012KT M02/M02 A3041 RMK A01 T10151023  RH  094%=      5-min Rain = 0
KCA1 071140Z 00014KT M02/M02 A3041 RMK A01 T10151023  RH  094%=      5-min Rain = 0
KCA1 071141Z 00013KT M02/M02 A3041 RMK A01 T10151024  RH  094%=      5-min Rain = 0
KCA1 071142Z 01011KT M02/M02 A3041 RMK A01 T10151024  RH  093%=      5-min Rain = 0
KCA1 071143Z 00010KT M02/M02 A3041 RMK A01 T10151024  RH  094%=      5-min Rain = 0
KCA1 071144Z 00011KT M02/M02 A3041 RMK A01 T10151024  RH  094%=      5-min Rain = 0
KCA1 071145Z 01011KT M02/M02 A3041 RMK A01 T10151023  RH  094%=      5-min Rain = 0
KCA1 071146Z 00013KT M02/M02 A304 RMK A01 T10151023  RH  094%=      5-min Rain = 0
KCA1 071147Z 00012KT M02/M02 A3041 RMK A01 T10151024  RH  093%=      5-min Rain = 0
KCA1 071148Z 00011KT M02/M02 A304 RMK A01 T10151024  RH  093%=      5-min Rain = 0
KCA1 071149Z 00011KT M02/M02 A3041 RMK A01 T10151024  RH  094%=      5-min Rain = 0
KCA1 071150Z 36011KT M02/M02 A3041 RMK A01 T10151024  RH  094%=      5-min Rain = 0
KCA1 071151Z 00010KT M02/M03 A3041 RMK A01 T10151025  RH  093%=      5-min Rain = 0
KCA1 071152Z 01009KT M02/M02 A3041 RMK A01 T10151024  RH  094%=      5-min Rain = 0
KCA1 071153Z 01009KT M02/M02 A3041 RMK A01 T10151023  RH  094%=      5-min Rain = 0
KCA1 071154Z 01012KT M02/M02 A3041 RMK A01 T10151023  RH  094%=      5-min Rain = 0
KCA1 071155Z 01012KT M02/M03 A3041 RMK A01 T10151025  RH  093%=      5-min Rain = 0
KCA1 071156Z 01010KT M02/M03 A3041 RMK A01 T10151026  RH  092%=      5-min Rain = 0
KCA1 071157Z 00010KT M02/M03 A3041 RMK A01 T10151027  RH  092%=      5-min Rain = 0
KCA1 071158Z 01010KT M02/M03 A3042 RMK A01 T10151026  RH  092%=      5-min Rain = 0
KCA1 071159Z 00008KT M02/M03 A3042 RMK A01 T10151026  RH  093%=      5-min Rain = 0
KCA1 071200Z 00008KT M02/M02 A3042 RMK A01 T10151024  RH  094%=      5-min Rain = 0
KCA1 071201Z 36007KT M02/M02 A3042 RMK A01 T10151024  RH  094%=      5-min Rain = 0
KCA1 071202Z 35007KT M02/M02 A3042 RMK A01 T10151024  RH  094%=      5-min Rain = 0
KCA1 071203Z 36009KT M02/M02 A3042 RMK A01 T10151023  RH  095%=      5-min Rain = 0
KCA1 071204Z 36007KT M02/M02 A3042 RMK A01 T10151023  RH  094%=      5-min Rain = 0
KCA1 071205Z 36008KT M02/M02 A3042 RMK A01 T10151023  RH  095%=      5-min Rain = 0
KCA1 071206Z 00008KT M02/M02 A3042 RMK A01 T10151023  RH  094%=      5-min Rain = 0
KCA1 071207Z 00007KT M02/M02 A3042 RMK A01 T10151023  RH  094%=      5-min Rain = 0
KCA1 071208Z 01009KT M02/M02 A3042 RMK A01 T10151023  RH  095%=      5-min Rain = 0
KCA1 071209Z 00009KT M02/M02 A3042 RMK A01 T10151023  RH  095%=      5-min Rain = 0
KCA1 071210Z 36007KT M02/M02 A3041 RMK A01 T10151023  RH  094%=      5-min Rain = 0
KCA1 071211Z 35006KT M02/M02 A3041 RMK A01 T10151023  RH  095%=      5-min Rain = 0
KCA1 071212Z 35006KT M02/M02 A3041 RMK A01 T10151022  RH  095%=      5-min Rain = 0
KCA1 071213Z 36008KT M02/M02 A3041 RMK A01 T10151021  RH  096%=      5-min Rain = 0
KCA1 071214Z 36007KT M02/M02 A3042 RMK A01 T10151021  RH  096%=      5-min Rain = 0
KCA1 071215Z 35006KT M02/M02 A3042 RMK A01 T10151021  RH  096%=      5-min Rain = 0
KCA1 071216Z 36006KT M02/M02 A3042 RMK A01 T10151021  RH  096%=      5-min Rain = 0
KCA1 071217Z 00005KT M02/M02 A3042 RMK A01 T10151020  RH  096%=      5-min Rain = 0
KCA1 071218Z 35005KT M02/M02 A3042 RMK A01 T10151020  RH  096%=      5-min Rain = 0
KCA1 071219Z 01006KT M02/M02 A3042 RMK A01 T10151021  RH  096%=      5-min Rain = 0
KCA1 071220Z 00006KT M02/M02 A3042 RMK A01 T10151021  RH  096%=      5-min Rain = 0
KCA1 071221Z 00006KT M02/M02 A3042 RMK A01 T10151021  RH  095%=      5-min Rain = 0
KCA1 071222Z 01006KT M02/M02 A3043 RMK A01 T10151022  RH  095%=      5-min Rain = 0
KCA1 071223Z 00006KT M02/M02 A3043 RMK A01 T10151022  RH  095%=      5-min Rain = 0
KCA1 071224Z 00007KT M02/M02 A3043 RMK A01 T10151023  RH  095%=      5-min Rain = 0
KCA1 071225Z 36006KT M02/M03 A3043 RMK A01 T10151025  RH  094%=      5-min Rain = 0
KCA1 071226Z 00005KT M02/M03 A3043 RMK A01 T10161025  RH  093%=      5-min Rain = 0
KCA1 071227Z 35004KT M02/M02 A3043 RMK A01 T10161024  RH  094%=      5-min Rain = 0
KCA1 071228Z 35005KT M02/M02 A3043 RMK A01 T10161023  RH  095%=      5-min Rain = 0
KCA1 071229Z 35006KT M02/M02 A3043 RMK A01 T10161023  RH  095%=      5-min Rain = 0
KCA1 071230Z 36006KT M02/M02 A3043 RMK A01 T10151023  RH  095%=      5-min Rain = 0
KCA1 071231Z 36005KT M02/M02 A3043 RMK A01 T10161024  RH  095%=      5-min Rain = 0
KCA1 071232Z 36007KT M02/M02 A3043 RMK A01 T10161024  RH  094%=      5-min Rain = 0
KCA1 071233Z 00006KT M02/M02 A3043 RMK A01 T10161024  RH  094%=      5-min Rain = 0
KCA1 071234Z 01006KT M02/M03 A3043 RMK A01 T10171025  RH  094%=      5-min Rain = 0
KCA1 071235Z 00005KT M02/M02 A3043 RMK A01 T10171024  RH  094%=      5-min Rain = 0
KCA1 071236Z 36005KT M02/M02 A3043 RMK A01 T10171024  RH  095%=      5-min Rain = 0
KCA1 071237Z 00004KT M02/M02 A3043 RMK A01 T10161023  RH  095%=      5-min Rain = 0
KCA1 071238Z 00006KT M02/M02 A3043 RMK A01 T10171023  RH  095%=      5-min Rain = 0
KCA1 071239Z 00006KT M02/M02 A3043 RMK A01 T10161023  RH  095%=      5-min Rain = 0
KCA1 071240Z 36006KT M02/M02 A3043 RMK A01 T10171024  RH  095%=      5-min Rain = 0
KCA1 071241Z 36005KT M02/M02 A3043 RMK A01 T10171024  RH  094%=      5-min Rain = 0
KCA1 071242Z 36005KT M02/M03 A3043 RMK A01 T10171025  RH  094%=      5-min Rain = 0
KCA1 071243Z 00005KT M02/M02 A3043 RMK A01 T10171024  RH  094%=      5-min Rain = 0
KCA1 071244Z 36005KT M02/M03 A3043 RMK A01 T10171025  RH  094%=      5-min Rain = 0
KCA1 071245Z 00006KT M02/M03 A3043 RMK A01 T10171025  RH  094%=      5-min Rain = 0
KCA1 071246Z 01005KT M02/M03 A3044 RMK A01 T10171025  RH  094%=      5-min Rain = 0
KCA1 071247Z 36004KT M02/M02 A3044 RMK A01 T10171024  RH  094%=      5-min Rain = 0
KCA1 071248Z 35005KT M02/M02 A3044 RMK A01 T10171024  RH  095%=      5-min Rain = 0
KCA1 071249Z 36005KT M02/M02 A3044 RMK A01 T10171024  RH  095%=      5-min Rain = 0
KCA1 071250Z 01005KT M02/M03 A3044 RMK A01 T10171025  RH  094%=      5-min Rain = 0
KCA1 071251Z 00005KT M02/M03 A3044 RMK A01 T10171025  RH  094%=      5-min Rain = 0
KCA1 071252Z 35004KT M02/M03 A3044 RMK A01 T10171027  RH  093%=      5-min Rain = 0
KCA1 071253Z 36005KT M02/M03 A3044 RMK A01 T10171027  RH  093%=      5-min Rain = 0
KCA1 071254Z 00005KT M02/M03 A3044 RMK A01 T10171028  RH  092%=      5-min Rain = 0
KCA1 071255Z 36005KT M02/M03 A3044 RMK A01 T10171028  RH  092%=      5-min Rain = 0
KCA1 071256Z 35005KT M02/M03 A3044 RMK A01 T10181029  RH  092%=      5-min Rain = 0
KCA1 071257Z 00004KT M02/M03 A3044 RMK A01 T10181029  RH  092%=      5-min Rain = 0
KCA1 071258Z 36005KT M02/M03 A3044 RMK A01 T10181030  RH  092%=      5-min Rain = 0
KCA1 071259Z 01005KT M02/M03 A3044 RMK A01 T10181030  RH  092%=      5-min Rain = 0
KCA1 071300Z 01005KT M02/M03 A3044 RMK A01 T10181031  RH  091%=      5-min Rain = 0
KCA1 071301Z 01006KT M02/M03 A3044 RMK A01 T10181031  RH  091%=      5-min Rain = 0
KCA1 071302Z 01005KT M02/M03 A3044 RMK A01 T10181032  RH  090%=      5-min Rain = 0
KCA1 071303Z 00005KT M02/M03 A3044 RMK A01 T10191033  RH  090%=      5-min Rain = 0
KCA1 071304Z 36005KT M02/M03 A3044 RMK A01 T10191033  RH  090%=      5-min Rain = 0
KCA1 071305Z 00006KT M02/M03 A3044 RMK A01 T10191033  RH  090%=      5-min Rain = 0
KCA1 071306Z 00005KT M02/M03 A3044 RMK A01 T10191034  RH  089%=      5-min Rain = 0
KCA1 071307Z 01005KT M02/M03 A3044 RMK A01 T10191034  RH  090%=      5-min Rain = 0
KCA1 071308Z 36005KT M02/M03 A3044 RMK A01 T10191033  RH  090%=      5-min Rain = 0
KCA1 071309Z 00005KT M02/M03 A3044 RMK A01 T10191033  RH  090%=      5-min Rain = 0
KCA1 071310Z 00005KT M02/M03 A3045 RMK A01 T10191033  RH  090%=      5-min Rain = 0
KCA1 071311Z 01004KT M02/M03 A3045 RMK A01 T10191034  RH  090%=      5-min Rain = 0
KCA1 071312Z 01004KT M02/M03 A3045 RMK A01 T10191033  RH  091%=      5-min Rain = 0
KCA1 071313Z 00004KT M02/M03 A3045 RMK A01 T10191032  RH  091%=      5-min Rain = 0
KCA1 071314Z 36003KT M02/M03 A3045 RMK A01 T10191032  RH  091%=      5-min Rain = 0
KCA1 071315Z 00004KT M02/M03 A3045 RMK A01 T10191031  RH  092%=      5-min Rain = 0
KCA1 071316Z 00004KT M02/M03 A3045 RMK A01 T10191031  RH  092%=      5-min Rain = 0
KCA1 071317Z 00004KT M02/M03 A3045 RMK A01 T10191032  RH  091%=      5-min Rain = 0
KCA1 071318Z 00004KT M02/M03 A3045 RMK A01 T10191032  RH  091%=      5-min Rain = 0
KCA1 071319Z 36003KT M02/M03 A3045 RMK A01 T10191032  RH  091%=      5-min Rain = 0
KCA1 071320Z 35004KT M02/M03 A3045 RMK A01 T10191031  RH  092%=      5-min Rain = 0
KCA1 071321Z 36004KT M02/M03 A3046 RMK A01 T10191030  RH  092%=      5-min Rain = 0
KCA1 071322Z 36004KT M02/M03 A3046 RMK A01 T10191030  RH  092%=      5-min Rain = 0
KCA1 071323Z 36003KT M02/M03 A3046 RMK A01 T10191031  RH  092%=      5-min Rain = 0
KCA1 071324Z 35003KT M02/M03 A3045 RMK A01 T10191030  RH  092%=      5-min Rain = 0
KCA1 071325Z 00003KT M02/M03 A3045 RMK A01 T10191030  RH  092%=      5-min Rain = 0
KCA1 071326Z 35003KT M02/M03 A3045 RMK A01 T10191029  RH  093%=      5-min Rain = 0
KCA1 071327Z 36004KT M02/M03 A3045 RMK A01 T10191030  RH  092%=      5-min Rain = 0
KCA1 071328Z 35003KT M02/M03 A3045 RMK A01 T10191030  RH  092%=      5-min Rain = 0
KCA1 071329Z 35003KT M02/M03 A3045 RMK A01 T10191030  RH  092%=      5-min Rain = 0
KCA1 071330Z 35004KT M02/M03 A3046 RMK A01 T10181029  RH  092%=      5-min Rain = 0
KCA1 071331Z 35004KT M02/M03 A3046 RMK A01 T10181030  RH  092%=      5-min Rain = 0
KCA1 071332Z 36004KT M02/M03 A3046 RMK A01 T10181030  RH  092%=      5-min Rain = 0
KCA1 071333Z 35003KT M02/M03 A3046 RMK A01 T10181030  RH  092%=      5-min Rain = 0
KCA1 071334Z 34003KT M02/M03 A3046 RMK A01 T10181029  RH  092%=      5-min Rain = 0
KCA1 071335Z 35003KT M02/M03 A3046 RMK A01 T10181029  RH  092%=      5-min Rain = 0
KCA1 071336Z 35004KT M02/M03 A3046 RMK A01 T10181029  RH  092%=      5-min Rain = 0
KCA1 071337Z 35004KT M02/M03 A3046 RMK A01 T10181029  RH  092%=      5-min Rain = 0
KCA1 071338Z 00004KT M02/M03 A3046 RMK A01 T10181029  RH  092%=      5-min Rain = 0
KCA1 071339Z 00004KT M02/M03 A3046 RMK A01 T10181029  RH  092%=      5-min Rain = 0
KCA1 071340Z 35004KT M02/M03 A3046 RMK A01 T10181029  RH  092%=      5-min Rain = 0
KCA1 071341Z 00004KT M02/M03 A3046 RMK A01 T10181029  RH  092%=      5-min Rain = 0
KCA1 071342Z 35004KT M02/M03 A3046 RMK A01 T10181030  RH  092%=      5-min Rain = 0
KCA1 071343Z 35004KT M02/M03 A3046 RMK A01 T10181029  RH  092%=      5-min Rain = 0
KCA1 071344Z 35004KT M02/M03 A3046 RMK A01 T10181029  RH  092%=      5-min Rain = 0
KCA1 071345Z 35004KT M02/M03 A3046 RMK A01 T10181029  RH  092%=      5-min Rain = 0
KCA1 071346Z 35004KT M02/M03 A3046 RMK A01 T10181030  RH  091%=      5-min Rain = 0
KCA1 071347Z 36004KT M02/M03 A3046 RMK A01 T10181030  RH  091%=      5-min Rain = 0
KCA1 071348Z 00004KT M02/M03 A3046 RMK A01 T10181031  RH  091%=      5-min Rain = 0
KCA1 071349Z 35005KT M02/M03 A3046 RMK A01 T10181032  RH  090%=      5-min Rain = 0
KCA1 071350Z 36005KT M02/M03 A3046 RMK A01 T10181032  RH  090%=      5-min Rain = 0
KCA1 071351Z 00005KT M02/M03 A3046 RMK A01 T10181031  RH  090%=      5-min Rain = 0
KCA1 071352Z 36003KT M02/M03 A3046 RMK A01 T10171031  RH  091%=      5-min Rain = 0
KCA1 071353Z 36003KT M02/M03 A3046 RMK A01 T10181029  RH  092%=      5-min Rain = 0
KCA1 071354Z 35003KT M02/M03 A3047 RMK A01 T10171029  RH  092%=      5-min Rain = 0
KCA1 071355Z 36004KT M02/M03 A3047 RMK A01 T10181028  RH  092%=      5-min Rain = 0
KCA1 071356Z 36005KT M02/M03 A3047 RMK A01 T10171029  RH  092%=      5-min Rain = 0
KCA1 071357Z 36004KT M02/M03 A3047 RMK A01 T10171030  RH  091%=      5-min Rain = 0
KCA1 071358Z 36004KT M02/M03 A3047 RMK A01 T10171030  RH  091%=      5-min Rain = 0
KCA1 071359Z 00005KT M02/M03 A3047 RMK A01 T10181031  RH  090%=      5-min Rain = 0
KCA1 071400Z 01005KT M02/M03 A3047 RMK A01 T10181032  RH  090%=      5-min Rain = 0
KCA1 071401Z 01005KT M02/M03 A3047 RMK A01 T10171033  RH  089%=      5-min Rain = 0
KCA1 071402Z 00004KT M02/M03 A3047 RMK A01 T10181033  RH  089%=      5-min Rain = 0
KCA1 071403Z 36005KT M02/M03 A3047 RMK A01 T10181032  RH  090%=      5-min Rain = 0
KCA1 071404Z 00005KT M02/M03 A3047 RMK A01 T10171033  RH  089%=      5-min Rain = 0
KCA1 071405Z 36005KT M02/M03 A3047 RMK A01 T10181033  RH  090%=      5-min Rain = 0
KCA1 071406Z 00004KT M02/M03 A3047 RMK A01 T10181032  RH  090%=      5-min Rain = 0
KCA1 071407Z 36003KT M02/M03 A3047 RMK A01 T10181031  RH  090%=      5-min Rain = 0
KCA1 071408Z 35004KT M02/M03 A3047 RMK A01 T10181030  RH  091%=      5-min Rain = 0
KCA1 071409Z 36004KT M02/M03 A3047 RMK A01 T10181030  RH  091%=      5-min Rain = 0
KCA1 071410Z 35003KT M02/M03 A3048 RMK A01 T10181030  RH  091%=      5-min Rain = 0
KCA1 071411Z 35003KT M02/M03 A3048 RMK A01 T10181030  RH  092%=      5-min Rain = 0
KCA1 071412Z 36003KT M02/M03 A3048 RMK A01 T10181029  RH  092%=      5-min Rain = 0
KCA1 071413Z 35003KT M02/M03 A3048 RMK A01 T10171028  RH  092%=      5-min Rain = 0
KCA1 071414Z 35003KT M02/M03 A3048 RMK A01 T10181029  RH  092%=      5-min Rain = 0
KCA1 071415Z 35003KT M02/M03 A3048 RMK A01 T10171029  RH  092%=      5-min Rain = 0
KCA1 071416Z 35003KT M02/M03 A3048 RMK A01 T10171028  RH  092%=      5-min Rain = 0
KCA1 071417Z 35004KT M02/M03 A3048 RMK A01 T10181028  RH  092%=      5-min Rain = 0
KCA1 071418Z 36005KT M02/M03 A3048 RMK A01 T10181029  RH  092%=      5-min Rain = 0
KCA1 071419Z 36005KT M02/M03 A3048 RMK A01 T10171031  RH  091%=      5-min Rain = 0
KCA1 071420Z 36005KT M02/M03 A3048 RMK A01 T10171031  RH  090%=      5-min Rain = 0
KCA1 071421Z 36005KT M02/M03 A3048 RMK A01 T10171032  RH  090%=      5-min Rain = 0
KCA1 071422Z 36004KT M02/M03 A3048 RMK A01 T10171032  RH  090%=      5-min Rain = 0
KCA1 071423Z 36003KT M02/M03 A3048 RMK A01 T10171031  RH  091%=      5-min Rain = 0
KCA1 071424Z 36004KT M02/M03 A3048 RMK A01 T10181030  RH  091%=      5-min Rain = 0
KCA1 071425Z 35004KT M02/M03 A3048 RMK A01 T10171030  RH  091%=      5-min Rain = 0
KCA1 071426Z 35003KT M02/M03 A3048 RMK A01 T10181030  RH  091%=      5-min Rain = 0
KCA1 071427Z 36003KT M02/M03 A3048 RMK A01 T10171029  RH  092%=      5-min Rain = 0
KCA1 071428Z 35003KT M02/M03 A3048 RMK A01 T10171029  RH  092%=      5-min Rain = 0
KCA1 071429Z 35004KT M02/M03 A3049 RMK A01 T10181029  RH  092%=      5-min Rain = 0
KCA1 071430Z 36004KT M02/M03 A3049 RMK A01 T10171029  RH  092%=      5-min Rain = 0
KCA1 071431Z 36004KT M02/M03 A3049 RMK A01 T10181029  RH  092%=      5-min Rain = 0
KCA1 071432Z 00004KT M02/M03 A3049 RMK A01 T10171029  RH  092%=      5-min Rain = 0
KCA1 071433Z 36005KT M02/M03 A3049 RMK A01 T10181029  RH  092%=      5-min Rain = 0
KCA1 071434Z 35004KT M02/M03 A3049 RMK A01 T10171030  RH  091%=      5-min Rain = 0
KCA1 071435Z 35004KT M02/M03 A3049 RMK A01 T10181031  RH  091%=      5-min Rain = 0
KCA1 071436Z 36004KT M02/M03 A3049 RMK A01 T10171031  RH  091%=      5-min Rain = 0
KCA1 071437Z 35003KT M02/M03 A3049 RMK A01 T10171030  RH  091%=      5-min Rain = 0
KCA1 071438Z 00003KT M02/M03 A3049 RMK A01 T10171029  RH  092%=      5-min Rain = 0
KCA1 071439Z 36004KT M02/M03 A3049 RMK A01 T10171029  RH  092%=      5-min Rain = 0
KCA1 071440Z 01005KT M02/M03 A3049 RMK A01 T10181030  RH  091%=      5-min Rain = 0
KCA1 071441Z 01006KT M02/M03 A3049 RMK A01 T10181033  RH  089%=      5-min Rain = 0
KCA1 071442Z 01006KT M02/M03 A3049 RMK A01 T10181034  RH  088%=      5-min Rain = 0
KCA1 071443Z 00006KT M02/M04 A3049 RMK A01 T10181035  RH  088%=      5-min Rain = 0
KCA1 071444Z 00005KT M02/M04 A3049 RMK A01 T10171035  RH  088%=      5-min Rain = 0
KCA1 071445Z 00004KT M02/M04 A305 RMK A01 T10181035  RH  088%=      5-min Rain = 0
KCA1 071446Z 36005KT M02/M04 A305 RMK A01 T10171035  RH  088%=      5-min Rain = 0
KCA1 071447Z 01006KT M02/M04 A305 RMK A01 T10171035  RH  088%=      5-min Rain = 0
KCA1 071448Z 01006KT M02/M04 A305 RMK A01 T10181037  RH  087%=      5-min Rain = 0
KCA1 071449Z 00005KT M02/M04 A305 RMK A01 T10181037  RH  086%=      5-min Rain = 0
KCA1 071450Z 01005KT M02/M04 A305 RMK A01 T10181036  RH  087%=      5-min Rain = 0
KCA1 071451Z 00006KT M02/M04 A305 RMK A01 T10171035  RH  088%=      5-min Rain = 0
KCA1 071452Z 00004KT M02/M04 A305 RMK A01 T10181036  RH  088%=      5-min Rain = 0
KCA1 071453Z 35004KT M02/M03 A3051 RMK A01 T10181034  RH  089%=      5-min Rain = 0
KCA1 071454Z 36004KT M02/M03 A305 RMK A01 T10181033  RH  090%=      5-min Rain = 0
KCA1 071455Z 36005KT M02/M03 A305 RMK A01 T10181032  RH  090%=      5-min Rain = 0
KCA1 071456Z 35004KT M02/M03 A305 RMK A01 T10181033  RH  090%=      5-min Rain = 0
KCA1 071457Z 36005KT M02/M03 A305 RMK A01 T10181033  RH  090%=      5-min Rain = 0
KCA1 071458Z 35005KT M02/M03 A305 RMK A01 T10181033  RH  089%=      5-min Rain = 0
KCA1 071459Z 00006KT M02/M03 A305 RMK A01 T10181034  RH  089%=      5-min Rain = 0
KCA1 071500Z 01005KT M02/M04 A305 RMK A01 T10181035  RH  088%=      5-min Rain = 0
KCA1 071501Z 36007KT M02/M04 A305 RMK A01 T10181035  RH  088%=      5-min Rain = 0
KCA1 071502Z 36005KT M02/M04 A305 RMK A01 T10181035  RH  088%=      5-min Rain = 0
KCA1 071503Z 00005KT M02/M04 A305 RMK A01 T10181035  RH  088%=      5-min Rain = 0
KCA1 071504Z 00005KT M02/M03 A305 RMK A01 T10181034  RH  089%=      5-min Rain = 0
KCA1 071505Z 00006KT M02/M03 A305 RMK A01 T10181034  RH  089%=      5-min Rain = 0
KCA1 071506Z 00006KT M02/M04 A305 RMK A01 T10181035  RH  088%=      5-min Rain = 0
KCA1 071507Z 36006KT M02/M04 A305 RMK A01 T10181036  RH  088%=      5-min Rain = 0
KCA1 071508Z 36005KT M02/M04 A305 RMK A01 T10181036  RH  088%=      5-min Rain = 0
KCA1 071509Z 00005KT M02/M03 A305 RMK A01 T10181034  RH  089%=      5-min Rain = 0
KCA1 071510Z 00004KT M02/M03 A305 RMK A01 T10181033  RH  089%=      5-min Rain = 0
KCA1 071511Z 01005KT M02/M03 A305 RMK A01 T10181033  RH  090%=      5-min Rain = 0
KCA1 071512Z 00006KT M02/M03 A305 RMK A01 T10181032  RH  090%=      5-min Rain = 0
KCA1 071513Z 01005KT M02/M03 A305 RMK A01 T10181033  RH  089%=      5-min Rain = 0
KCA1 071514Z 01006KT M02/M03 A305 RMK A01 T10181033  RH  089%=      5-min Rain = 0
KCA1 071515Z 00006KT M02/M03 A305 RMK A01 T10181033  RH  089%=      5-min Rain = 0
KCA1 071516Z 00004KT M02/M03 A305 RMK A01 T10181034  RH  089%=      5-min Rain = 0
KCA1 071517Z 35005KT M02/M03 A305 RMK A01 T10181033  RH  090%=      5-min Rain = 0
KCA1 071518Z 01005KT M02/M03 A305 RMK A01 T10181033  RH  089%=      5-min Rain = 0
KCA1 071519Z 00004KT M02/M03 A3051 RMK A01 T10181034  RH  089%=      5-min Rain = 0
KCA1 071520Z 36005KT M02/M03 A3051 RMK A01 T10171032  RH  090%=      5-min Rain = 0
KCA1 071521Z 00005KT M02/M03 A3051 RMK A01 T10181032  RH  090%=      5-min Rain = 0
KCA1 071522Z 01004KT M02/M03 A3051 RMK A01 T10171031  RH  090%=      5-min Rain = 0
KCA1 071523Z 01004KT M02/M03 A3051 RMK A01 T10181031  RH  090%=      5-min Rain = 0
KCA1 071524Z 00004KT M02/M03 A3051 RMK A01 T10171031  RH  090%=      5-min Rain = 0
KCA1 071525Z 00004KT M02/M03 A3051 RMK A01 T10181031  RH  091%=      5-min Rain = 0
KCA1 071526Z 36003KT M02/M03 A3051 RMK A01 T10181030  RH  091%=      5-min Rain = 0
KCA1 071527Z 36003KT M02/M03 A3051 RMK A01 T10171029  RH  091%=      5-min Rain = 0
KCA1 071528Z 36003KT M02/M03 A3051 RMK A01 T10171029  RH  092%=      5-min Rain = 0
KCA1 071529Z 01004KT M02/M03 A3051 RMK A01 T10171029  RH  092%=      5-min Rain = 0
KCA1 071530Z 00005KT M02/M03 A3051 RMK A01 T10171028  RH  092%=      5-min Rain = 0
KCA1 071531Z 36005KT M02/M03 A3051 RMK A01 T10171030  RH  091%=      5-min Rain = 0
KCA1 071532Z 00006KT M02/M03 A3051 RMK A01 T10171031  RH  090%=      5-min Rain = 0
KCA1 071533Z 00005KT M02/M03 A3051 RMK A01 T10171033  RH  089%=      5-min Rain = 0
KCA1 071534Z 01006KT M02/M03 A3051 RMK A01 T10171033  RH  089%=      5-min Rain = 0
KCA1 071535Z 00006KT M02/M03 A3051 RMK A01 T10171034  RH  088%=      5-min Rain = 0
KCA1 071536Z 01006KT M02/M04 A3051 RMK A01 T10181035  RH  088%=      5-min Rain = 0
KCA1 071537Z 00005KT M02/M03 A3051 RMK A01 T10181034  RH  089%=      5-min Rain = 0
KCA1 071538Z 00005KT M02/M03 A3051 RMK A01 T10181033  RH  089%=      5-min Rain = 0
KCA1 071539Z 00006KT M02/M03 A3051 RMK A01 T10181033  RH  089%=      5-min Rain = 0
KCA1 071540Z 00006KT M02/M03 A3051 RMK A01 T10181034  RH  089%=      5-min Rain = 0
KCA1 071541Z 00006KT M02/M03 A3051 RMK A01 T10181034  RH  088%=      5-min Rain = 0
KCA1 071542Z 01005KT M02/M04 A3051 RMK A01 T10181035  RH  089%=      5-min Rain = 0
KCA1 071543Z 01006KT M02/M04 A3051 RMK A01 T10181035  RH  089%=      5-min Rain = 0
KCA1 071544Z 01006KT M02/M04 A3051 RMK A01 T10191035  RH  089%=      5-min Rain = 0
KCA1 071545Z 36005KT M02/M03 A3051 RMK A01 T10191034  RH  089%=      5-min Rain = 0
KCA1 071546Z 36006KT M02/M03 A3051 RMK A01 T10181033  RH  090%=      5-min Rain = 0
KCA1 071547Z 01006KT M02/M04 A3051 RMK A01 T10181035  RH  089%=      5-min Rain = 0
KCA1 071548Z 00007KT M02/M04 A3052 RMK A01 T10181035  RH  088%=      5-min Rain = 0
KCA1 071549Z 01007KT M02/M04 A3051 RMK A01 T10181035  RH  088%=      5-min Rain = 0
KCA1 071550Z 00006KT M02/M04 A3052 RMK A01 T10181036  RH  088%=      5-min Rain = 0
KCA1 071551Z 00006KT M02/M04 A3052 RMK A01 T10181036  RH  088%=      5-min Rain = 0
KCA1 071552Z 36004KT M02/M03 A3052 RMK A01 T10181034  RH  089%=      5-min Rain = 0
KCA1 071553Z 00007KT M02/M03 A3052 RMK A01 T10181032  RH  090%=      5-min Rain = 0
KCA1 071554Z 00006KT M02/M03 A3052 RMK A01 T10181034  RH  089%=      5-min Rain = 0
KCA1 071555Z 01005KT M02/M04 A3052 RMK A01 T10191035  RH  089%=      5-min Rain = 0
KCA1 071556Z 00005KT M02/M04 A3052 RMK A01 T10191035  RH  089%=      5-min Rain = 0
KCA1 071557Z 36005KT M02/M03 A3052 RMK A01 T10191034  RH  089%=      5-min Rain = 0
KCA1 071558Z 00006KT M02/M03 A3052 RMK A01 T10191034  RH  090%=      5-min Rain = 0
KCA1 071559Z 00005KT M02/M04 A3052 RMK A01 T10191035  RH  089%=      5-min Rain = 0
KCA1 071600Z 01004KT M02/M04 A3052 RMK A01 T10191035  RH  089%=      5-min Rain = 0
KCA1 071601Z 00005KT M02/M03 A3052 RMK A01 T10191034  RH  089%=      5-min Rain = 0
KCA1 071602Z 00005KT M02/M03 A3052 RMK A01 T10191034  RH  090%=      5-min Rain = 0
KCA1 071603Z 00006KT M02/M03 A3052 RMK A01 T10191034  RH  090%=      5-min Rain = 0
KCA1 071604Z 01005KT M02/M03 A3052 RMK A01 T10191034  RH  089%=      5-min Rain = 0
KCA1 071605Z 01005KT M02/M03 A3052 RMK A01 T10191034  RH  089%=      5-min Rain = 0
KCA1 071606Z 01004KT M02/M03 A3052 RMK A01 T10191033  RH  090%=      5-min Rain = 0
KCA1 071607Z 01005KT M02/M03 A3052 RMK A01 T10191033  RH  090%=      5-min Rain = 0
KCA1 071608Z 01005KT M02/M03 A3052 RMK A01 T10191033  RH  090%=      5-min Rain = 0
KCA1 071609Z 01006KT M02/M03 A3052 RMK A01 T10191033  RH  090%=      5-min Rain = 0
KCA1 071610Z 01005KT M02/M03 A3052 RMK A01 T10191033  RH  090%=      5-min Rain = 0
KCA1 071611Z 00006KT M02/M03 A3052 RMK A01 T10191034  RH  090%=      5-min Rain = 0
KCA1 071612Z 01006KT M02/M04 A3052 RMK A01 T10191035  RH  089%=      5-min Rain = 0
KCA1 071613Z 36006KT M02/M04 A3052 RMK A01 T10191036  RH  088%=      5-min Rain = 0
KCA1 071614Z 01006KT M02/M04 A3052 RMK A01 T10191035  RH  089%=      5-min Rain = 0
KCA1 071615Z 00007KT M02/M04 A3053 RMK A01 T10191035  RH  089%=      5-min Rain = 0
KCA1 071616Z 00006KT M02/M04 A3052 RMK A01 T10191036  RH  088%=      5-min Rain = 0
KCA1 071617Z 00005KT M02/M04 A3053 RMK A01 T10191036  RH  088%=      5-min Rain = 0
KCA1 071618Z 01006KT M02/M04 A3053 RMK A01 T10191035  RH  088%=      5-min Rain = 0
KCA1 071619Z 01007KT M02/M04 A3053 RMK A01 T10191035  RH  088%=      5-min Rain = 0
KCA1 071620Z 00006KT M02/M04 A3053 RMK A01 T10191036  RH  088%=      5-min Rain = 0
KCA1 071621Z 36006KT M02/M04 A3053 RMK A01 T10191036  RH  088%=      5-min Rain = 0
KCA1 071622Z 36005KT M02/M04 A3053 RMK A01 T10191036  RH  088%=      5-min Rain = 0
KCA1 071623Z 36005KT M02/M04 A3053 RMK A01 T10191036  RH  088%=      5-min Rain = 0
KCA1 071624Z 36005KT M02/M04 A3053 RMK A01 T10191035  RH  089%=      5-min Rain = 0
KCA1 071625Z 36005KT M02/M03 A3053 RMK A01 T10191034  RH  090%=      5-min Rain = 0
KCA1 071626Z 36005KT M02/M03 A3053 RMK A01 T10191034  RH  089%=      5-min Rain = 0
KCA1 071627Z 00005KT M02/M03 A3053 RMK A01 T10191034  RH  089%=      5-min Rain = 0
KCA1 071628Z 00005KT M02/M03 A3053 RMK A01 T10191034  RH  090%=      5-min Rain = 0
KCA1 071629Z 00005KT M02/M03 A3054 RMK A01 T10191033  RH  090%=      5-min Rain = 0
KCA1 071630Z 01004KT M02/M03 A3054 RMK A01 T10181032  RH  091%=      5-min Rain = 0
KCA1 071631Z 00004KT M02/M03 A3054 RMK A01 T10181031  RH  091%=      5-min Rain = 0
KCA1 071632Z 00004KT M02/M03 A3054 RMK A01 T10181031  RH  091%=      5-min Rain = 0
KCA1 071633Z 36004KT M02/M03 A3054 RMK A01 T10181030  RH  091%=      5-min Rain = 0
KCA1 071634Z 00004KT M02/M03 A3054 RMK A01 T10181030  RH  092%=      5-min Rain = 0
KCA1 071635Z 01004KT M02/M03 A3054 RMK A01 T10181030  RH  091%=      5-min Rain = 0
KCA1 071636Z 00004KT M02/M03 A3054 RMK A01 T10181030  RH  091%=      5-min Rain = 0
KCA1 071637Z 00006KT M02/M03 A3054 RMK A01 T10181032  RH  090%=      5-min Rain = 0
KCA1 071638Z 01007KT M02/M04 A3054 RMK A01 T10181036  RH  088%=      5-min Rain = 0
KCA1 071639Z 01006KT M02/M04 A3054 RMK A01 T10181037  RH  087%=      5-min Rain = 0
KCA1 071640Z 00007KT M02/M04 A3054 RMK A01 T10181037  RH  087%=      5-min Rain = 0
KCA1 071641Z 01006KT M02/M04 A3054 RMK A01 T10181037  RH  087%=      5-min Rain = 0
KCA1 071642Z 00005KT M02/M04 A3053 RMK A01 T10181038  RH  086%=      5-min Rain = 0
KCA1 071643Z 01005KT M02/M04 A3053 RMK A01 T10181036  RH  088%=      5-min Rain = 0
KCA1 071644Z 01006KT M02/M04 A3053 RMK A01 T10181035  RH  088%=      5-min Rain = 0
KCA1 071645Z 01006KT M02/M04 A3053 RMK A01 T10171035  RH  088%=      5-min Rain = 0
KCA1 071646Z 01005KT M02/M04 A3053 RMK A01 T10181037  RH  087%=      5-min Rain = 0
KCA1 071647Z 01005KT M02/M04 A3053 RMK A01 T10171037  RH  086%=      5-min Rain = 0
KCA1 071648Z 01005KT M02/M04 A3053 RMK A01 T10181037  RH  087%=      5-min Rain = 0
KCA1 071649Z 01005KT M02/M04 A3053 RMK A01 T10181036  RH  087%=      5-min Rain = 0
KCA1 071650Z 00006KT M02/M04 A3053 RMK A01 T10171036  RH  087%=      5-min Rain = 0
KCA1 071651Z 01007KT M02/M04 A3053 RMK A01 T10171035  RH  088%=      5-min Rain = 0
KCA1 071652Z 00006KT M02/M04 A3053 RMK A01 T10171038  RH  086%=      5-min Rain = 0
KCA1 071653Z 01005KT M02/M04 A3053 RMK A01 T10171038  RH  085%=      5-min Rain = 0
KCA1 071654Z 01006KT M02/M04 A3053 RMK A01 T10171037  RH  086%=      5-min Rain = 0
KCA1 071655Z 01005KT M02/M04 A3053 RMK A01 T10171038  RH  086%=      5-min Rain = 0
KCA1 071656Z 01004KT M02/M04 A3053 RMK A01 T10171037  RH  087%=      5-min Rain = 0
KCA1 071657Z 01006KT M02/M04 A3053 RMK A01 T10171037  RH  086%=      5-min Rain = 0
KCA1 071658Z 01006KT M02/M04 A3053 RMK A01 T10171039  RH  085%=      5-min Rain = 0
KCA1 071659Z 01005KT M02/M04 A3053 RMK A01 T10171041  RH  084%=      5-min Rain = 0
KCA1 071700Z 02005KT M02/M04 A3053 RMK A01 T10171040  RH  084%=      5-min Rain = 0
KCA1 071701Z 01005KT M02/M04 A3053 RMK A01 T10171040  RH  084%=      5-min Rain = 0
KCA1 071702Z 01005KT M02/M04 A3053 RMK A01 T10171041  RH  084%=      5-min Rain = 0
KCA1 071703Z 01005KT M02/M04 A3053 RMK A01 T10171041  RH  084%=      5-min Rain = 0
KCA1 071704Z 01005KT M02/M04 A3053 RMK A01 T10171039  RH  085%=      5-min Rain = 0
KCA1 071705Z 01005KT M02/M04 A3053 RMK A01 T10171037  RH  086%=      5-min Rain = 0
KCA1 071706Z 01004KT M02/M04 A3053 RMK A01 T10171036  RH  086%=      5-min Rain = 0
KCA1 071707Z 01003KT M02/M04 A3053 RMK A01 T10161035  RH  087%=      5-min Rain = 0
KCA1 071708Z 02003KT M02/M03 A3053 RMK A01 T10161032  RH  089%=      5-min Rain = 0
KCA1 071709Z 01004KT M02/M03 A3053 RMK A01 T10151031  RH  089%=      5-min Rain = 0
KCA1 071710Z 01004KT M02/M03 A3053 RMK A01 T10151032  RH  088%=      5-min Rain = 0
KCA1 071711Z 01004KT M02/M03 A3053 RMK A01 T10151032  RH  088%=      5-min Rain = 0
KCA1 071712Z 01005KT M02/M03 A3053 RMK A01 T10151032  RH  088%=      5-min Rain = 0
KCA1 071713Z 01004KT M02/M03 A3053 RMK A01 T10151033  RH  088%=      5-min Rain = 0
KCA1 071714Z 01005KT M02/M03 A3053 RMK A01 T10151031  RH  089%=      5-min Rain = 0
KCA1 071715Z 01006KT M02/M03 A3053 RMK A01 T10151031  RH  089%=      5-min Rain = 0
KCA1 071716Z 01005KT M02/M03 A3053 RMK A01 T10151032  RH  088%=      5-min Rain = 0
KCA1 071717Z 00005KT M02/M03 A3053 RMK A01 T10151032  RH  088%=      5-min Rain = 0
KCA1 071718Z 01005KT M01/M03 A3053 RMK A01 T10141030  RH  089%=      5-min Rain = 0
KCA1 071719Z 01005KT M01/M03 A3053 RMK A01 T10141031  RH  088%=      5-min Rain = 0
KCA1 071720Z 01005KT M01/M03 A3053 RMK A01 T10141031  RH  089%=      5-min Rain = 0
KCA1 071721Z 01004KT M01/M03 A3053 RMK A01 T10141030  RH  089%=      5-min Rain = 0
KCA1 071722Z 00005KT M01/M03 A3053 RMK A01 T10141029  RH  089%=      5-min Rain = 0
KCA1 071723Z 00005KT M01/M03 A3053 RMK A01 T10141030  RH  089%=      5-min Rain = 0
KCA1 071724Z 00004KT M01/M03 A3053 RMK A01 T10141030  RH  089%=      5-min Rain = 0
KCA1 071725Z 00004KT M01/M03 A3053 RMK A01 T10141029  RH  089%=      5-min Rain = 0
KCA1 071726Z 01005KT M01/M03 A3053 RMK A01 T10131028  RH  090%=      5-min Rain = 0
KCA1 071727Z 01005KT M01/M03 A3053 RMK A01 T10131029  RH  089%=      5-min Rain = 0
KCA1 071728Z 01004KT M01/M03 A3053 RMK A01 T10131030  RH  088%=      5-min Rain = 0
KCA1 071729Z 02005KT M01/M03 A3053 RMK A01 T10131031  RH  088%=      5-min Rain = 0
KCA1 071730Z 01004KT M01/M03 A3052 RMK A01 T10131033  RH  087%=      5-min Rain = 0
KCA1 071731Z 01004KT M01/M03 A3052 RMK A01 T10131031  RH  088%=      5-min Rain = 0
KCA1 071732Z 02005KT M01/M03 A3052 RMK A01 T10131030  RH  089%=      5-min Rain = 0
KCA1 071733Z 01005KT M01/M03 A3052 RMK A01 T10131031  RH  088%=      5-min Rain = 0
KCA1 071734Z 02005KT M01/M03 A3052 RMK A01 T10131031  RH  088%=      5-min Rain = 0
KCA1 071735Z 01005KT M01/M03 A3052 RMK A01 T10131031  RH  088%=      5-min Rain = 0
KCA1 071736Z 01005KT M01/M03 A3052 RMK A01 T10131030  RH  088%=      5-min Rain = 0
KCA1 071737Z 01006KT M01/M03 A3052 RMK A01 T10131032  RH  087%=      5-min Rain = 0
KCA1 071738Z 01006KT M01/M03 A3052 RMK A01 T10131034  RH  085%=      5-min Rain = 0
KCA1 071739Z 01005KT M01/M04 A3052 RMK A01 T10131036  RH  085%=      5-min Rain = 0
KCA1 071740Z 01006KT M01/M03 A3052 RMK A01 T10131034  RH  086%=      5-min Rain = 0
KCA1 071741Z 00006KT M01/M03 A3052 RMK A01 T10131033  RH  086%=      5-min Rain = 0
KCA1 071742Z 36005KT M01/M03 A3052 RMK A01 T10131032  RH  087%=      5-min Rain = 0
KCA1 071743Z 36006KT M01/M03 A3052 RMK A01 T10131031  RH  088%=      5-min Rain = 0
KCA1 071744Z 35006KT M01/M03 A3052 RMK A01 T10131032  RH  087%=      5-min Rain = 0
KCA1 071745Z 36006KT M01/M03 A3052 RMK A01 T10141034  RH  086%=      5-min Rain = 0
KCA1 071746Z 00005KT M02/M03 A3052 RMK A01 T10151034  RH  087%=      5-min Rain = 0
KCA1 071747Z 00004KT M02/M03 A3052 RMK A01 T10151033  RH  087%=      5-min Rain = 0
KCA1 071748Z 01006KT M02/M03 A3052 RMK A01 T10151032  RH  088%=      5-min Rain = 0
KCA1 071749Z 02005KT M02/M04 A3052 RMK A01 T10151035  RH  086%=      5-min Rain = 0
KCA1 071750Z 02005KT M02/M04 A3052 RMK A01 T10151037  RH  085%=      5-min Rain = 0
KCA1 071751Z 01005KT M02/M04 A3052 RMK A01 T10151036  RH  086%=      5-min Rain = 0
KCA1 071752Z 01006KT M02/M04 A3052 RMK A01 T10151036  RH  086%=      5-min Rain = 0
KCA1 071753Z 01006KT M02/M04 A3052 RMK A01 T10151037  RH  085%=      5-min Rain = 0
KCA1 071754Z 01007KT M02/M04 A3052 RMK A01 T10161039  RH  084%=      5-min Rain = 0
KCA1 071755Z 01006KT M02/M04 A3052 RMK A01 T10171041  RH  084%=      5-min Rain = 0
KCA1 071756Z 01006KT M02/M04 A3052 RMK A01 T10171041  RH  084%=      5-min Rain = 0
KCA1 071757Z 01005KT M02/M04 A3052 RMK A01 T10171041  RH  084%=      5-min Rain = 0
KCA1 071758Z 00005KT M02/M04 A3052 RMK A01 T10171038  RH  085%=      5-min Rain = 0
KCA1 071759Z 00006KT M02/M04 A3052 RMK A01 T10171039  RH  085%=      5-min Rain = 0
KCA1 071800Z 00006KT M02/M04 A3052 RMK A01 T10171042  RH  083%=      5-min Rain = 0
KCA1 071801Z 01005KT M02/M04 A3052 RMK A01 T10171041  RH  083%=      5-min Rain = 0
KCA1 071802Z 01005KT M02/M04 A3052 RMK A01 T10171041  RH  084%=      5-min Rain = 0
KCA1 071803Z 01006KT M02/M04 A3052 RMK A01 T10171041  RH  083%=      5-min Rain = 0
KCA1 071804Z 01006KT M02/M05 A3052 RMK A01 T10171045  RH  081%=      5-min Rain = 0
KCA1 071805Z 01005KT M02/M05 A3052 RMK A01 T10181048  RH  080%=      5-min Rain = 0
KCA1 071806Z 36005KT M02/M05 A3052 RMK A01 T10191047  RH  081%=      5-min Rain = 0
KCA1 071807Z 01005KT M02/M05 A3052 RMK A01 T10181046  RH  081%=      5-min Rain = 0
KCA1 071808Z 01006KT M02/M05 A3052 RMK A01 T10191046  RH  081%=      5-min Rain = 0
KCA1 071809Z 01006KT M02/M05 A3052 RMK A01 T10181045  RH  082%=      5-min Rain = 0
KCA1 071810Z 01004KT M02/M05 A3052 RMK A01 T10181047  RH  081%=      5-min Rain = 0
KCA1 071811Z 01005KT M02/M05 A3052 RMK A01 T10191046  RH  082%=      5-min Rain = 0
KCA1 071812Z 01005KT M02/M05 A3052 RMK A01 T10181046  RH  081%=      5-min Rain = 0
KCA1 071813Z 01005KT M02/M05 A3052 RMK A01 T10181045  RH  082%=      5-min Rain = 0
KCA1 071814Z 00004KT M02/M05 A3052 RMK A01 T10191047  RH  081%=      5-min Rain = 0
KCA1 071815Z 36003KT M02/M04 A3052 RMK A01 T10181044  RH  083%=      5-min Rain = 0
KCA1 071816Z 36005KT M02/M04 A3052 RMK A01 T10171039  RH  085%=      5-min Rain = 0
KCA1 071817Z 00005KT M02/M04 A3052 RMK A01 T10171040  RH  084%=      5-min Rain = 0
KCA1 071818Z 01006KT M02/M04 A3052 RMK A01 T10171044  RH  082%=      5-min Rain = 0
KCA1 071819Z 01006KT M02/M05 A3052 RMK A01 T10171047  RH  080%=      5-min Rain = 0
KCA1 071820Z 01005KT M02/M05 A3051 RMK A01 T10181047  RH  080%=      5-min Rain = 0
KCA1 071821Z 01005KT M02/M05 A3052 RMK A01 T10171045  RH  081%=      5-min Rain = 0
KCA1 071822Z 01005KT M02/M05 A3051 RMK A01 T10181045  RH  082%=      5-min Rain = 0
KCA1 071823Z 01004KT M02/M04 A3051 RMK A01 T10171042  RH  083%=      5-min Rain = 0
KCA1 071824Z 36004KT M02/M04 A3051 RMK A01 T10171040  RH  084%=      5-min Rain = 0
KCA1 071825Z 36004KT M02/M04 A3051 RMK A01 T10161037  RH  086%=      5-min Rain = 0
KCA1 071826Z 00004KT M02/M04 A3051 RMK A01 T10161039  RH  085%=      5-min Rain = 0
KCA1 071827Z 00005KT M02/M04 A3051 RMK A01 T10161039  RH  085%=      5-min Rain = 0
KCA1 071828Z 36004KT M02/M04 A3051 RMK A01 T10161039  RH  084%=      5-min Rain = 0
KCA1 071829Z 36004KT M02/M04 A3051 RMK A01 T10161037  RH  085%=      5-min Rain = 0
KCA1 071830Z 36005KT M02/M04 A305 RMK A01 T10151037  RH  085%=      5-min Rain = 0
KCA1 071831Z 01006KT M02/M04 A305 RMK A01 T10151036  RH  085%=      5-min Rain = 0
KCA1 071832Z 01006KT M01/M04 A305 RMK A01 T10141038  RH  084%=      5-min Rain = 0
KCA1 071833Z 00006KT M01/M04 A305 RMK A01 T10141039  RH  083%=      5-min Rain = 0
KCA1 071834Z 01006KT M02/M04 A305 RMK A01 T10151040  RH  083%=      5-min Rain = 0
KCA1 071835Z 01005KT M02/M04 A305 RMK A01 T10151039  RH  083%=      5-min Rain = 0
KCA1 071836Z 01005KT M01/M04 A305 RMK A01 T10141037  RH  084%=      5-min Rain = 0
KCA1 071837Z 01005KT M01/M04 A305 RMK A01 T10141038  RH  084%=      5-min Rain = 0
KCA1 071838Z 01005KT M01/M04 A305 RMK A01 T10141039  RH  083%=      5-min Rain = 0
KCA1 071839Z 01004KT M01/M04 A305 RMK A01 T10131035  RH  085%=      5-min Rain = 0
KCA1 071840Z 01004KT M01/M03 A305 RMK A01 T10131033  RH  086%=      5-min Rain = 0
KCA1 071841Z 01005KT M01/M03 A305 RMK A01 T10121031  RH  087%=      5-min Rain = 0
KCA1 071842Z 01005KT M01/M03 A305 RMK A01 T10121032  RH  086%=      5-min Rain = 0
KCA1 071843Z 01006KT M01/M03 A305 RMK A01 T10121031  RH  087%=      5-min Rain = 0
KCA1 071844Z 01006KT M01/M03 A305 RMK A01 T10121034  RH  085%=      5-min Rain = 0
KCA1 071845Z 00005KT M01/M04 A305 RMK A01 T10121038  RH  083%=      5-min Rain = 0
KCA1 071846Z 36006KT M01/M04 A305 RMK A01 T10131036  RH  084%=      5-min Rain = 0
KCA1 071847Z 01006KT M01/M04 A305 RMK A01 T10131037  RH  083%=      5-min Rain = 0
KCA1 071848Z 01006KT M01/M04 A305 RMK A01 T10131038  RH  083%=      5-min Rain = 0
KCA1 071849Z 01005KT M01/M04 A305 RMK A01 T10131038  RH  083%=      5-min Rain = 0
KCA1 071850Z 01005KT M01/M04 A305 RMK A01 T10131037  RH  084%=      5-min Rain = 0
KCA1 071851Z 00005KT M01/M04 A305 RMK A01 T10131035  RH  085%=      5-min Rain = 0
KCA1 071852Z 00005KT M01/M04 A305 RMK A01 T10131037  RH  084%=      5-min Rain = 0
KCA1 071853Z 00005KT M01/M04 A305 RMK A01 T10131036  RH  084%=      5-min Rain = 0
KCA1 071854Z 01005KT M01/M04 A305 RMK A01 T10131039  RH  083%=      5-min Rain = 0
KCA1 071855Z 01005KT M01/M04 A305 RMK A01 T10131039  RH  083%=      5-min Rain = 0
KCA1 071856Z 36004KT M01/M04 A305 RMK A01 T10131037  RH  084%=      5-min Rain = 0
KCA1 071857Z 01004KT M01/M03 A305 RMK A01 T10121033  RH  086%=      5-min Rain = 0
KCA1 071858Z 01005KT M01/M03 A305 RMK A01 T10111031  RH  086%=      5-min Rain = 0
KCA1 071859Z 01005KT M01/M03 A305 RMK A01 T10111032  RH  085%=      5-min Rain = 0
KCA1 071900Z 01005KT M01/M03 A305 RMK A01 T10111034  RH  084%=      5-min Rain = 0
KCA1 071901Z 01004KT M01/M03 A305 RMK A01 T10111034  RH  084%=      5-min Rain = 0
KCA1 071902Z 01004KT M01/M03 A3049 RMK A01 T10111032  RH  085%=      5-min Rain = 0
KCA1 071903Z 00006KT M01/M03 A3049 RMK A01 T10101029  RH  087%=      5-min Rain = 0
KCA1 071904Z 01006KT M01/M03 A3049 RMK A01 T10101032  RH  085%=      5-min Rain = 0
KCA1 071905Z 00006KT M01/M03 A3049 RMK A01 T10101032  RH  085%=      5-min Rain = 0
KCA1 071906Z 36006KT M01/M03 A3049 RMK A01 T10101033  RH  084%=      5-min Rain = 0
KCA1 071907Z 35005KT M01/M04 A3049 RMK A01 T10111035  RH  084%=      5-min Rain = 0
KCA1 071908Z 00005KT M01/M03 A3049 RMK A01 T10111033  RH  085%=      5-min Rain = 0
KCA1 071909Z 01005KT M01/M03 A3049 RMK A01 T10101030  RH  086%=      5-min Rain = 0
KCA1 071910Z 01005KT M01/M03 A3049 RMK A01 T10101029  RH  087%=      5-min Rain = 0
KCA1 071911Z 01005KT M01/M03 A3049 RMK A01 T10101029  RH  087%=      5-min Rain = 0
KCA1 071912Z 01005KT M01/M03 A3049 RMK A01 T10101031  RH  086%=      5-min Rain = 0
KCA1 071913Z 01007KT M01/M03 A3048 RMK A01 T10101032  RH  085%=      5-min Rain = 0
KCA1 071914Z 00006KT M01/M03 A3048 RMK A01 T10101034  RH  084%=      5-min Rain = 0
KCA1 071915Z 01006KT M01/M03 A3048 RMK A01 T10101033  RH  084%=      5-min Rain = 0
KCA1 071916Z 01005KT M01/M03 A3048 RMK A01 T10091031  RH  085%=      5-min Rain = 0
KCA1 071917Z 01006KT M01/M03 A3048 RMK A01 T10081029  RH  086%=      5-min Rain = 0
KCA1 071918Z 00006KT M01/M03 A3048 RMK A01 T10081031  RH  085%=      5-min Rain = 0
KCA1 071919Z 36006KT M01/M03 A3048 RMK A01 T10081032  RH  084%=      5-min Rain = 0
KCA1 071920Z 01005KT M01/M03 A3048 RMK A01 T10081030  RH  085%=      5-min Rain = 0
KCA1 071921Z 00005KT M01/M03 A3048 RMK A01 T10081028  RH  087%=      5-min Rain = 0
KCA1 071922Z 36005KT M01/M03 A3048 RMK A01 T10081028  RH  086%=      5-min Rain = 0
KCA1 071923Z 35005KT M01/M03 A3048 RMK A01 T10071027  RH  087%=      5-min Rain = 0
KCA1 071924Z 36005KT M01/M03 A3048 RMK A01 T10061026  RH  087%=      5-min Rain = 0
KCA1 071925Z 35005KT M01/M03 A3048 RMK A01 T10061027  RH  086%=      5-min Rain = 0
KCA1 071926Z 36005KT M01/M03 A3048 RMK A01 T10071028  RH  086%=      5-min Rain = 0
KCA1 071927Z 01004KT M01/M03 A3048 RMK A01 T10061026  RH  087%=      5-min Rain = 0
KCA1 071928Z 01005KT M01/M02 A3048 RMK A01 T10061024  RH  088%=      5-min Rain = 0
KCA1 071929Z 01006KT M01/M02 A3047 RMK A01 T10051023  RH  087%=      5-min Rain = 0
KCA1 071930Z 00006KT M01/M03 A3047 RMK A01 T10051026  RH  086%=      5-min Rain = 0
KCA1 071931Z 00006KT M01/M03 A3047 RMK A01 T10051026  RH  086%=      5-min Rain = 0
KCA1 071932Z 00006KT M01/M03 A3047 RMK A01 T10051027  RH  085%=      5-min Rain = 0
KCA1 071933Z 00005KT M01/M03 A3047 RMK A01 T10051027  RH  085%=      5-min Rain = 0
KCA1 071934Z 01005KT M01/M03 A3047 RMK A01 T10051025  RH  086%=      5-min Rain = 0
KCA1 071935Z 00004KT M00/M02 A3047 RMK A01 T10041022  RH  088%=      5-min Rain = 0
KCA1 071936Z 00005KT M00/M02 A3047 RMK A01 T10031021  RH  088%=      5-min Rain = 0
KCA1 071937Z 01005KT M00/M02 A3047 RMK A01 T10031023  RH  086%=      5-min Rain = 0
KCA1 071938Z 01004KT M00/M02 A3047 RMK A01 T10031022  RH  087%=      5-min Rain = 0
KCA1 071939Z 01006KT M00/M02 A3047 RMK A01 T10021019  RH  089%=      5-min Rain = 0
KCA1 071940Z 01006KT M00/M02 A3047 RMK A01 T10021020  RH  087%=      5-min Rain = 0
KCA1 071941Z 01006KT M00/M02 A3047 RMK A01 T10011022  RH  086%=      5-min Rain = 0
KCA1 071942Z 01005KT M00/M02 A3047 RMK A01 T10011022  RH  086%=      5-min Rain = 0
KCA1 071943Z 01005KT M00/M02 A3047 RMK A01 T10011021  RH  087%=      5-min Rain = 0
KCA1 071944Z 01006KT M00/M02 A3047 RMK A01 T10011020  RH  087%=      5-min Rain = 0
KCA1 071945Z 02005KT M00/M02 A3047 RMK A01 T10011021  RH  087%=      5-min Rain = 0
KCA1 071946Z 01004KT M00/M02 A3047 RMK A01 T10011020  RH  088%=      5-min Rain = 0
KCA1 071947Z 01005KT M00/M02 A3047 RMK A01 T10011018  RH  088%=      5-min Rain = 0
KCA1 071948Z 00004KT 00/02 A3047 RMK A01 T00-00-17  RH  089%=      5-min Rain = 0
KCA1 071949Z 01005KT 00/M02 A3047 RMK A01 T00011016  RH  089%=      5-min Rain = 0
KCA1 071950Z 00005KT 00/M02 A3047 RMK A01 T00011016  RH  088%=      5-min Rain = 0
KCA1 071951Z 01005KT 00/M01 A3047 RMK A01 T00021014  RH  089%=      5-min Rain = 0
KCA1 071952Z 36006KT 00/M01 A3046 RMK A01 T00021014  RH  089%=      5-min Rain = 0
KCA1 071953Z 00005KT 00/M02 A3046 RMK A01 T00021016  RH  087%=      5-min Rain = 0
KCA1 071954Z 36004KT 00/M02 A3046 RMK A01 T00021016  RH  088%=      5-min Rain = 0
KCA1 071955Z 01005KT 00/M01 A3046 RMK A01 T00031013  RH  089%=      5-min Rain = 0
KCA1 071956Z 02005KT 00/M01 A3046 RMK A01 T00041012  RH  089%=      5-min Rain = 0
KCA1 071957Z 02006KT 00/M01 A3046 RMK A01 T00041013  RH  088%=      5-min Rain = 0
KCA1 071958Z 01005KT 00/M02 A3046 RMK A01 T00031015  RH  087%=      5-min Rain = 0
KCA1 071959Z 01004KT 00/M02 A3046 RMK A01 T00031015  RH  088%=      5-min Rain = 0
KCA1 072000Z 01006KT 00/M01 A3046 RMK A01 T00031013  RH  089%=      5-min Rain = 0
KCA1 072001Z 02006KT 00/M01 A3046 RMK A01 T00031014  RH  088%=      5-min Rain = 0
KCA1 072002Z 01005KT 00/M02 A3045 RMK A01 T00041015  RH  087%=      5-min Rain = 0
KCA1 072003Z 01006KT 00/M01 A3045 RMK A01 T00041014  RH  088%=      5-min Rain = 0
KCA1 072004Z 01007KT 00/M01 A3045 RMK A01 T00041014  RH  088%=      5-min Rain = 0
KCA1 072005Z 01006KT 00/M02 A3045 RMK A01 T00031016  RH  087%=      5-min Rain = 0
KCA1 072006Z 36005KT 00/M02 A3045 RMK A01 T00031015  RH  087%=      5-min Rain = 0
KCA1 072007Z 01004KT 00/M01 A3045 RMK A01 T00041013  RH  088%=      5-min Rain = 0
KCA1 072008Z 01005KT 00/M01 A3045 RMK A01 T00041012  RH  089%=      5-min Rain = 0
KCA1 072009Z 01006KT 00/M01 A3045 RMK A01 T00041012  RH  089%=      5-min Rain = 0
KCA1 072010Z 01006KT 00/M01 A3045 RMK A01 T00041013  RH  088%=      5-min Rain = 0.01
KCA1 072011Z 00005KT 00/M01 A3045 RMK A01 T00041013  RH  088%=      5-min Rain = 0
KCA1 072012Z 01005KT 01/M01 A3045 RMK A01 T00051011  RH  089%=      5-min Rain = 0.01
KCA1 072013Z 36005KT 01/M01 A3046 RMK A01 T00051010  RH  089%=      5-min Rain = 0.01
KCA1 072014Z 35006KT 01/M01 A3045 RMK A01 T00051011  RH  089%=      5-min Rain = 0
KCA1 072015Z 36005KT 01/M01 A3045 RMK A01 T00061010  RH  089%=      5-min Rain = 0
KCA1 072016Z 35004KT 01/M01 A3045 RMK A01 T00061010  RH  089%=      5-min Rain = 0
KCA1 072017Z 36005KT 01/M01 A3045 RMK A01 T00061010  RH  090%=      5-min Rain = 0
KCA1 072018Z 00006KT 01/M01 A3045 RMK A01 T00061009  RH  089%=      5-min Rain = 0
KCA1 072019Z 01005KT 01/M01 A3045 RMK A01 T00071010  RH  089%=      5-min Rain = 0
KCA1 072020Z 01005KT 01/M01 A3045 RMK A01 T00071011  RH  088%=      5-min Rain = 0
KCA1 072021Z 01004KT 01/M01 A3045 RMK A01 T00071010  RH  088%=      5-min Rain = 0
KCA1 072022Z 01005KT 01/M01 A3045 RMK A01 T00071009  RH  089%=      5-min Rain = 0
KCA1 072023Z 36006KT 01/M01 A3045 RMK A01 T00081011  RH  087%=      5-min Rain = 0
KCA1 072024Z 36006KT 01/M01 A3045 RMK A01 T00071013  RH  086%=      5-min Rain = 0
KCA1 072025Z 01005KT 01/M01 A3045 RMK A01 T00081012  RH  087%=      5-min Rain = 0
KCA1 072026Z 01005KT 01/M01 A3045 RMK A01 T00081012  RH  086%=      5-min Rain = 0
KCA1 072027Z 01006KT 01/M01 A3045 RMK A01 T00081012  RH  087%=      5-min Rain = 0
KCA1 072028Z 01006KT 01/M01 A3045 RMK A01 T00081012  RH  086%=      5-min Rain = 0
KCA1 072029Z 01006KT 01/M01 A3044 RMK A01 T00081012  RH  087%=      5-min Rain = 0
KCA1 072030Z 01006KT 01/M01 A3044 RMK A01 T00091010  RH  088%=      5-min Rain = 0
KCA1 072031Z 01005KT 01/M01 A3044 RMK A01 T00091010  RH  087%=      5-min Rain = 0
KCA1 072032Z 03006KT 01/M01 A3044 RMK A01 T00101011  RH  086%=      5-min Rain = 0
KCA1 072033Z 02006KT 01/M01 A3044 RMK A01 T00101010  RH  087%=      5-min Rain = 0
KCA1 072034Z 02006KT 01/M01 A3045 RMK A01 T00101008  RH  088%=      5-min Rain = 0
KCA1 072035Z 01005KT 01/M01 A3044 RMK A01 T00111008  RH  087%=      5-min Rain = 0
KCA1 072036Z 01005KT 01/M01 A3044 RMK A01 T00111008  RH  087%=      5-min Rain = 0
KCA1 072037Z 02004KT 01/M01 A3045 RMK A01 T00111010  RH  086%=      5-min Rain = 0
KCA1 072038Z 01005KT 01/M01 A3045 RMK A01 T00111007  RH  088%=      5-min Rain = 0
KCA1 072039Z 02005KT 01/M01 A3045 RMK A01 T00111007  RH  087%=      5-min Rain = 0
KCA1 072040Z 00007KT 01/M01 A3045 RMK A01 T00121006  RH  088%=      5-min Rain = 0
KCA1 072041Z 01009KT 01/M01 A3045 RMK A01 T00121008  RH  086%=      5-min Rain = 0
KCA1 072042Z 01009KT 01/M01 A3045 RMK A01 T00121009  RH  086%=      5-min Rain = 0
KCA1 072043Z 00009KT 01/M01 A3045 RMK A01 T00121010  RH  086%=      5-min Rain = 0
KCA1 072044Z 00009KT 01/M01 A3045 RMK A01 T00121010  RH  086%=      5-min Rain = 0
KCA1 072045Z 36008KT 01/M01 A3045 RMK A01 T00121010  RH  085%=      5-min Rain = 0
KCA1 072046Z 00007KT 01/M01 A3044 RMK A01 T00121011  RH  085%=      5-min Rain = 0
KCA1 072047Z 36008KT 01/M01 A3044 RMK A01 T00121010  RH  085%=      5-min Rain = 0
KCA1 072048Z 01007KT 01/M01 A3044 RMK A01 T00121010  RH  086%=      5-min Rain = 0
KCA1 072049Z 01006KT 01/M01 A3044 RMK A01 T00121008  RH  086%=      5-min Rain = 0
KCA1 072050Z 36008KT 01/M01 A3044 RMK A01 T00131009  RH  086%=      5-min Rain = 0
KCA1 072051Z 01008KT 01/M01 A3044 RMK A01 T00131010  RH  085%=      5-min Rain = 0
KCA1 072052Z 01009KT 01/M01 A3044 RMK A01 T00131010  RH  085%=      5-min Rain = 0
KCA1 072053Z 01008KT 01/M01 A3044 RMK A01 T00131010  RH  085%=      5-min Rain = 0
KCA1 072054Z 01008KT 01/M01 A3044 RMK A01 T00131010  RH  085%=      5-min Rain = 0.01
KCA1 072055Z 35007KT 01/M01 A3044 RMK A01 T00131007  RH  087%=      5-min Rain = 0
KCA1 072056Z 00007KT 02/M00 A3044 RMK A01 T00151004  RH  088%=      5-min Rain = 0
KCA1 072057Z 01007KT 02/M00 A3044 RMK A01 T00161002  RH  088%=      5-min Rain = 0
KCA1 072058Z 36009KT 02/M00 A3044 RMK A01 T00161002  RH  088%=      5-min Rain = 0
KCA1 072059Z 36010KT 02/M01 A3044 RMK A01 T00161005  RH  086%=      5-min Rain = 0
KCA1 072100Z 35009KT 02/M01 A3044 RMK A01 T00161005  RH  086%=      5-min Rain = 0
KCA1 072101Z 35010KT 02/M00 A3044 RMK A01 T00161004  RH  086%=      5-min Rain = 0
KCA1 072102Z 36010KT 02/M01 A3044 RMK A01 T00161005  RH  086%=      5-min Rain = 0
KCA1 072103Z 00009KT 02/M01 A3044 RMK A01 T00161006  RH  085%=      5-min Rain = 0
KCA1 072104Z 01008KT 02/M01 A3044 RMK A01 T00161006  RH  085%=      5-min Rain = 0
KCA1 072105Z 00010KT 02/M01 A3044 RMK A01 T00161005  RH  086%=      5-min Rain = 0
KCA1 072106Z 01009KT 02/M01 A3044 RMK A01 T00161006  RH  085%=      5-min Rain = 0
KCA1 072107Z 00010KT 02/M01 A3044 RMK A01 T00171007  RH  085%=      5-min Rain = 0
KCA1 072108Z 00010KT 02/M01 A3044 RMK A01 T00171009  RH  083%=      5-min Rain = 0
KCA1 072109Z 02008KT 02/M01 A3044 RMK A01 T00171008  RH  084%=      5-min Rain = 0
KCA1 072110Z 01007KT 02/M01 A3044 RMK A01 T00181005  RH  085%=      5-min Rain = 0
KCA1 072111Z 01010KT 02/M00 A3044 RMK A01 T00191004  RH  085%=      5-min Rain = 0
KCA1 072112Z 02009KT 02/M01 A3044 RMK A01 T00181008  RH  083%=      5-min Rain = 0
KCA1 072113Z 02008KT 02/M01 A3044 RMK A01 T00181007  RH  083%=      5-min Rain = 0
KCA1 072114Z 02008KT 02/M01 A3044 RMK A01 T00181005  RH  084%=      5-min Rain = 0
KCA1 072115Z 02009KT 02/M01 A3044 RMK A01 T00181006  RH  084%=      5-min Rain = 0
KCA1 072116Z 01010KT 02/M01 A3044 RMK A01 T00191008  RH  083%=      5-min Rain = 0
KCA1 072117Z 02009KT 02/M01 A3044 RMK A01 T00191009  RH  082%=      5-min Rain = 0
KCA1 072118Z 02008KT 02/M01 A3044 RMK A01 T00181010  RH  082%=      5-min Rain = 0
KCA1 072119Z 02009KT 02/M01 A3044 RMK A01 T00181008  RH  082%=      5-min Rain = 0
KCA1 072120Z 02008KT 02/M01 A3044 RMK A01 T00191009  RH  082%=      5-min Rain = 0
KCA1 072121Z 02006KT 02/M01 A3044 RMK A01 T00191009  RH  082%=      5-min Rain = 0
KCA1 072122Z 01006KT 02/M01 A3044 RMK A01 T00191008  RH  083%=      5-min Rain = 0
KCA1 072123Z 01007KT 02/M01 A3044 RMK A01 T00191008  RH  082%=      5-min Rain = 0
KCA1 072124Z 00008KT 02/M01 A3044 RMK A01 T00191010  RH  081%=      5-min Rain = 0
KCA1 072125Z 02008KT 02/M01 A3044 RMK A01 T00191009  RH  082%=      5-min Rain = 0
KCA1 072126Z 02007KT 02/M01 A3045 RMK A01 T00191009  RH  082%=      5-min Rain = 0
KCA1 072127Z 02006KT 02/M01 A3044 RMK A01 T00191008  RH  082%=      5-min Rain = 0
KCA1 072128Z 02005KT 02/M01 A3044 RMK A01 T00201006  RH  083%=      5-min Rain = 0
KCA1 072129Z 02007KT 02/M01 A3044 RMK A01 T00201007  RH  082%=      5-min Rain = 0
KCA1 072130Z 02006KT 02/M01 A3044 RMK A01 T00211007  RH  082%=      5-min Rain = 0
KCA1 072131Z 01006KT 02/M01 A3044 RMK A01 T00211006  RH  082%=      5-min Rain = 0
KCA1 072132Z 01006KT 02/M01 A3044 RMK A01 T00211006  RH  082%=      5-min Rain = 0
KCA1 072133Z 01006KT 02/M01 A3044 RMK A01 T00221006  RH  082%=      5-min Rain = 0
KCA1 072134Z 02007KT 02/M01 A3044 RMK A01 T00221005  RH  082%=      5-min Rain = 0
KCA1 072135Z 03007KT 02/M01 A3044 RMK A01 T00231005  RH  082%=      5-min Rain = 0
KCA1 072136Z 02007KT 02/M01 A3044 RMK A01 T00241006  RH  081%=      5-min Rain = 0
KCA1 072137Z 03005KT 02/M01 A3044 RMK A01 T00241008  RH  080%=      5-min Rain = 0
KCA1 072138Z 02007KT 02/M01 A3044 RMK A01 T00241008  RH  079%=      5-min Rain = 0
KCA1 072139Z 03008KT 02/M01 A3044 RMK A01 T00241008  RH  080%=      5-min Rain = 0
KCA1 072140Z 03008KT 02/M01 A3044 RMK A01 T00241008  RH  080%=      5-min Rain = 0
KCA1 072141Z 02007KT 02/M01 A3044 RMK A01 T00231009  RH  079%=      5-min Rain = 0
KCA1 072142Z 02006KT 02/M01 A3044 RMK A01 T00231008  RH  080%=      5-min Rain = 0
KCA1 072143Z 02005KT 02/M01 A3044 RMK A01 T00231007  RH  081%=      5-min Rain = 0
KCA1 072144Z 01004KT 02/M01 A3044 RMK A01 T00241007  RH  080%=      5-min Rain = 0
KCA1 072145Z 01006KT 03/M01 A3044 RMK A01 T00251005  RH  081%=      5-min Rain = 0
KCA1 072146Z 01006KT 03/M01 A3044 RMK A01 T00251007  RH  079%=      5-min Rain = 0
KCA1 072147Z 01006KT 03/M01 A3044 RMK A01 T00251008  RH  079%=      5-min Rain = 0
KCA1 072148Z 02008KT 03/M01 A3044 RMK A01 T00251007  RH  079%=      5-min Rain = 0
KCA1 072149Z 02004KT 03/M01 A3044 RMK A01 T00261006  RH  079%=      5-min Rain = 0
KCA1 072150Z 03005KT 03/M01 A3044 RMK A01 T00271006  RH  079%=      5-min Rain = 0
KCA1 072151Z 02005KT 03/M00 A3044 RMK A01 T00281004  RH  080%=      5-min Rain = 0
KCA1 072152Z 01005KT 03/M01 A3044 RMK A01 T00281005  RH  079%=      5-min Rain = 0
KCA1 072153Z 03006KT 03/M00 A3044 RMK A01 T00281004  RH  080%=      5-min Rain = 0
KCA1 072154Z 03007KT 03/M00 A3044 RMK A01 T00281004  RH  080%=      5-min Rain = 0
KCA1 072155Z 03006KT 03/M01 A3044 RMK A01 T00281005  RH  079%=      5-min Rain = 0
KCA1 072156Z 02004KT 03/M01 A3044 RMK A01 T00271006  RH  079%=      5-min Rain = 0
KCA1 072157Z 03005KT 03/M01 A3044 RMK A01 T00261005  RH  080%=      5-min Rain = 0
KCA1 072158Z 03005KT 03/M00 A3044 RMK A01 T00261004  RH  080%=      5-min Rain = 0
KCA1 072159Z 03007KT 03/M01 A3044 RMK A01 T00261005  RH  080%=      5-min Rain = 0
KCA1 072200Z 03006KT 03/M01 A3043 RMK A01 T00261006  RH  079%=      5-min Rain = 0
KCA1 072201Z 03005KT 03/M01 A3043 RMK A01 T00261005  RH  080%=      5-min Rain = 0
KCA1 072202Z 03004KT 03/M01 A3043 RMK A01 T00251005  RH  081%=      5-min Rain = 0
KCA1 072203Z 02003KT 03/M00 A3043 RMK A01 T00251004  RH  081%=      5-min Rain = 0
KCA1 072204Z 03006KT 03/M00 A3043 RMK A01 T00251003  RH  081%=      5-min Rain = 0
KCA1 072205Z 01006KT 03/M00 A3043 RMK A01 T00261004  RH  081%=      5-min Rain = 0
KCA1 072206Z 01006KT 03/M00 A3043 RMK A01 T00261002  RH  081%=      5-min Rain = 0
KCA1 072207Z 01006KT 03/M00 A3043 RMK A01 T00271002  RH  081%=      5-min Rain = 0
KCA1 072208Z 01005KT 03/M00 A3043 RMK A01 T00281004  RH  079%=      5-min Rain = 0
KCA1 072209Z 02005KT 03/M01 A3044 RMK A01 T00281007  RH  078%=      5-min Rain = 0
KCA1 072210Z 03005KT 03/M01 A3043 RMK A01 T00291005  RH  078%=      5-min Rain = 0
KCA1 072211Z 01005KT 03/M00 A3044 RMK A01 T00291004  RH  079%=      5-min Rain = 0
KCA1 072212Z 01006KT 03/M01 A3044 RMK A01 T00291006  RH  078%=      5-min Rain = 0
KCA1 072213Z 01007KT 03/M01 A3044 RMK A01 T00291007  RH  077%=      5-min Rain = 0
KCA1 072214Z 03007KT 03/M01 A3044 RMK A01 T00301005  RH  078%=      5-min Rain = 0
KCA1 072215Z 02006KT 03/M00 A3044 RMK A01 T00301003  RH  078%=      5-min Rain = 0
KCA1 072216Z 01005KT 03/M00 A3044 RMK A01 T00321001  RH  079%=      5-min Rain = 0
KCA1 072217Z 01007KT 03/M00 A3044 RMK A01 T00331002  RH  078%=      5-min Rain = 0
KCA1 072218Z 03005KT 03/M00 A3044 RMK A01 T00331002  RH  078%=      5-min Rain = 0
KCA1 072219Z 03005KT 03/M00 A3044 RMK A01 T00331001  RH  078%=      5-min Rain = 0
KCA1 072220Z 02005KT 03/00 A3044 RMK A01 T00330001  RH  079%=      5-min Rain = 0
KCA1 072221Z 02007KT 03/M00 A3044 RMK A01 T00331001  RH  078%=      5-min Rain = 0
KCA1 072222Z 01006KT 03/M00 A3044 RMK A01 T00331004  RH  077%=      5-min Rain = 0
KCA1 072223Z 02005KT 03/M00 A3044 RMK A01 T00331003  RH  077%=      5-min Rain = 0
KCA1 072224Z 02006KT 03/M01 A3044 RMK A01 T00331005  RH  076%=      5-min Rain = 0
KCA1 072225Z 03005KT 03/M01 A3044 RMK A01 T00331007  RH  075%=      5-min Rain = 0
KCA1 072226Z 03007KT 03/M01 A3044 RMK A01 T00321007  RH  075%=      5-min Rain = 0
KCA1 072227Z 03006KT 03/M01 A3044 RMK A01 T00321008  RH  075%=      5-min Rain = 0
KCA1 072228Z 03005KT 03/M01 A3044 RMK A01 T00311007  RH  076%=      5-min Rain = 0
KCA1 072229Z 01006KT 03/M01 A3044 RMK A01 T00311006  RH  076%=      5-min Rain = 0
KCA1 072230Z 01006KT 03/M01 A3044 RMK A01 T00311008  RH  076%=      5-min Rain = 0
KCA1 072231Z 02006KT 03/M01 A3044 RMK A01 T00311008  RH  076%=      5-min Rain = 0
KCA1 072232Z 03007KT 03/M01 A3044 RMK A01 T00301009  RH  076%=      5-min Rain = 0
KCA1 072233Z 02009KT 03/M01 A3044 RMK A01 T00301011  RH  074%=      5-min Rain = 0
KCA1 072234Z 02007KT 03/M01 A3044 RMK A01 T00301013  RH  074%=      5-min Rain = 0
KCA1 072235Z 03006KT 03/M01 A3044 RMK A01 T00291013  RH  074%=      5-min Rain = 0
KCA1 072236Z 03006KT 03/M01 A3044 RMK A01 T00291011  RH  075%=      5-min Rain = 0
KCA1 072237Z 02007KT 03/M01 A3044 RMK A01 T00291010  RH  075%=      5-min Rain = 0
KCA1 072238Z 02006KT 03/M01 A3044 RMK A01 T00291011  RH  075%=      5-min Rain = 0
KCA1 072239Z 02006KT 03/M01 A3044 RMK A01 T00291011  RH  075%=      5-min Rain = 0
KCA1 072240Z 02006KT 03/M01 A3044 RMK A01 T00281011  RH  075%=      5-min Rain = 0
KCA1 072241Z 02007KT 03/M01 A3044 RMK A01 T00281011  RH  075%=      5-min Rain = 0
KCA1 072242Z 02006KT 03/M01 A3044 RMK A01 T00281013  RH  074%=      5-min Rain = 0
KCA1 072243Z 02006KT 03/M01 A3044 RMK A01 T00281013  RH  074%=      5-min Rain = 0
KCA1 072244Z 02006KT 03/M01 A3044 RMK A01 T00281013  RH  074%=      5-min Rain = 0
KCA1 072245Z 02006KT 03/M01 A3044 RMK A01 T00281012  RH  075%=      5-min Rain = 0
KCA1 072246Z 02006KT 03/M01 A3044 RMK A01 T00281013  RH  075%=      5-min Rain = 0
KCA1 072247Z 03005KT 03/M01 A3044 RMK A01 T00281014  RH  074%=      5-min Rain = 0
KCA1 072248Z 03005KT 03/M01 A3044 RMK A01 T00281012  RH  075%=      5-min Rain = 0
KCA1 072249Z 03006KT 03/M01 A3044 RMK A01 T00271012  RH  075%=      5-min Rain = 0
KCA1 072250Z 03006KT 03/M01 A3044 RMK A01 T00271011  RH  076%=      5-min Rain = 0
KCA1 072251Z 03006KT 03/M01 A3044 RMK A01 T00271011  RH  076%=      5-min Rain = 0
KCA1 072252Z 03006KT 03/M01 A3044 RMK A01 T00271012  RH  076%=      5-min Rain = 0
KCA1 072253Z 03006KT 03/M01 A3044 RMK A01 T00271013  RH  075%=      5-min Rain = 0
KCA1 072254Z 03005KT 03/M01 A3044 RMK A01 T00271013  RH  075%=      5-min Rain = 0
KCA1 072255Z 03005KT 03/M01 A3044 RMK A01 T00271012  RH  076%=      5-min Rain = 0
KCA1 072256Z 03005KT 03/M01 A3044 RMK A01 T00271012  RH  076%=      5-min Rain = 0
KCA1 072257Z 03005KT 03/M01 A3044 RMK A01 T00261011  RH  076%=      5-min Rain = 0
KCA1 072258Z 03005KT 03/M01 A3044 RMK A01 T00261011  RH  077%=      5-min Rain = 0
KCA1 072259Z 03006KT 03/M01 A3044 RMK A01 T00261011  RH  077%=      5-min Rain = 0
KCA1 072300Z 03006KT 03/M01 A3044 RMK A01 T00261012  RH  076%=      5-min Rain = 0
KCA1 072301Z 03006KT 03/M01 A3044 RMK A01 T00261012  RH  076%=      5-min Rain = 0
KCA1 072302Z 03005KT 03/M01 A3044 RMK A01 T00251014  RH  075%=      5-min Rain = 0
KCA1 072303Z 03006KT 03/M01 A3044 RMK A01 T00261013  RH  076%=      5-min Rain = 0
KCA1 072304Z 03005KT 03/M01 A3044 RMK A01 T00251014  RH  075%=      5-min Rain = 0
KCA1 072305Z 03005KT 03/M01 A3044 RMK A01 T00251013  RH  076%=      5-min Rain = 0
KCA1 072306Z 03005KT 03/M01 A3044 RMK A01 T00251012  RH  076%=      5-min Rain = 0
KCA1 072307Z 03005KT 03/M01 A3044 RMK A01 T00251012  RH  077%=      5-min Rain = 0
KCA1 072308Z 03005KT 03/M01 A3044 RMK A01 T00251012  RH  077%=      5-min Rain = 0
KCA1 072309Z 03005KT 02/M01 A3044 RMK A01 T00241012  RH  077%=      5-min Rain = 0
KCA1 072310Z 03005KT 02/M01 A3044 RMK A01 T00241012  RH  077%=      5-min Rain = 0
KCA1 072311Z 03005KT 02/M01 A3044 RMK A01 T00241012  RH  077%=      5-min Rain = 0
KCA1 072312Z 03005KT 03/M01 A3044 RMK A01 T00251012  RH  077%=      5-min Rain = 0
KCA1 072313Z 03005KT 03/M01 A3044 RMK A01 T00251012  RH  077%=      5-min Rain = 0
KCA1 072314Z 03005KT 03/M01 A3044 RMK A01 T00251011  RH  077%=      5-min Rain = 0
KCA1 072315Z 03005KT 03/M01 A3044 RMK A01 T00251011  RH  078%=      5-min Rain = 0
KCA1 072316Z 03005KT 03/M01 A3044 RMK A01 T00251010  RH  078%=      5-min Rain = 0
KCA1 072317Z 03005KT 02/M01 A3044 RMK A01 T00241010  RH  078%=      5-min Rain = 0
KCA1 072318Z 03004KT 03/M01 A3044 RMK A01 T00251009  RH  079%=      5-min Rain = 0
KCA1 072319Z 03004KT 02/M01 A3044 RMK A01 T00241009  RH  079%=      5-min Rain = 0
KCA1 072320Z 03004KT 02/M01 A3044 RMK A01 T00241009  RH  079%=      5-min Rain = 0
KCA1 072321Z 03004KT 03/M01 A3044 RMK A01 T00251008  RH  079%=      5-min Rain = 0
KCA1 072322Z 03004KT 03/M01 A3044 RMK A01 T00251008  RH  079%=      5-min Rain = 0
KCA1 072323Z 03004KT 03/M01 A3044 RMK A01 T00251008  RH  079%=      5-min Rain = 0
KCA1 072324Z 03004KT 03/M01 A3044 RMK A01 T00251009  RH  079%=      5-min Rain = 0
KCA1 072325Z 03004KT 03/M01 A3044 RMK A01 T00251009  RH  079%=      5-min Rain = 0
KCA1 072326Z 03004KT 03/M01 A3044 RMK A01 T00251008  RH  079%=      5-min Rain = 0
KCA1 072327Z 03004KT 03/M01 A3044 RMK A01 T00251008  RH  079%=      5-min Rain = 0
KCA1 072328Z 03004KT 02/M01 A3044 RMK A01 T00241008  RH  079%=      5-min Rain = 0
KCA1 072329Z 03004KT 03/M01 A3044 RMK A01 T00251009  RH  079%=      5-min Rain = 0
KCA1 072330Z 03004KT 03/M01 A3044 RMK A01 T00251009  RH  078%=      5-min Rain = 0
KCA1 072331Z 03003KT 03/M01 A3044 RMK A01 T00251009  RH  079%=      5-min Rain = 0
KCA1 072332Z 04003KT 03/M01 A3044 RMK A01 T00251008  RH  079%=      5-min Rain = 0
KCA1 072333Z 04003KT 03/M01 A3044 RMK A01 T00251007  RH  079%=      5-min Rain = 0
KCA1 072334Z 04003KT 03/M01 A3044 RMK A01 T00251007  RH  079%=      5-min Rain = 0
KCA1 072335Z 04003KT 03/M01 A3044 RMK A01 T00251007  RH  080%=      5-min Rain = 0
KCA1 072336Z 04004KT 03/M01 A3044 RMK A01 T00251006  RH  080%=      5-min Rain = 0
KCA1 072337Z 03003KT 03/M01 A3044 RMK A01 T00251007  RH  080%=      5-min Rain = 0
KCA1 072338Z 03004KT 03/M01 A3044 RMK A01 T00251007  RH  079%=      5-min Rain = 0
KCA1 072339Z 03004KT 03/M01 A3044 RMK A01 T00251006  RH  080%=      5-min Rain = 0
KCA1 072340Z 04003KT 03/M01 A3044 RMK A01 T00251007  RH  080%=      5-min Rain = 0
KCA1 072341Z 03004KT 03/M01 A3044 RMK A01 T00251007  RH  079%=      5-min Rain = 0
KCA1 072342Z 03003KT 03/M01 A3044 RMK A01 T00251008  RH  079%=      5-min Rain = 0
KCA1 072343Z 03003KT 03/M01 A3044 RMK A01 T00251008  RH  079%=      5-min Rain = 0
KCA1 072344Z 03003KT 03/M01 A3044 RMK A01 T00251008  RH  079%=      5-min Rain = 0
KCA1 072345Z 03003KT 03/M01 A3044 RMK A01 T00251008  RH  079%=      5-min Rain = 0
KCA1 072346Z 04003KT 03/M01 A3044 RMK A01 T00251008  RH  079%=      5-min Rain = 0
KCA1 072347Z 05003KT 02/M01 A3044 RMK A01 T00241007  RH  080%=      5-min Rain = 0
KCA1 072348Z 04003KT 03/M01 A3044 RMK A01 T00251006  RH  080%=      5-min Rain = 0
KCA1 072349Z 04003KT 02/M01 A3044 RMK A01 T00241006  RH  080%=      5-min Rain = 0
KCA1 072350Z 04003KT 02/M01 A3044 RMK A01 T00241006  RH  080%=      5-min Rain = 0
KCA1 072351Z 04003KT 02/M01 A3044 RMK A01 T00241006  RH  081%=      5-min Rain = 0
KCA1 072352Z 04003KT 02/M01 A3044 RMK A01 T00241005  RH  081%=      5-min Rain = 0
KCA1 072353Z 03003KT 02/M01 A3044 RMK A01 T00231006  RH  081%=      5-min Rain = 0
KCA1 072354Z 03003KT 02/M01 A3044 RMK A01 T00231006  RH  081%=      5-min Rain = 0
KCA1 072355Z 03003KT 02/M01 A3044 RMK A01 T00231006  RH  081%=      5-min Rain = 0
KCA1 072356Z 03003KT 02/M01 A3044 RMK A01 T00241006  RH  081%=      5-min Rain = 0
KCA1 072357Z 03003KT 02/M01 A3044 RMK A01 T00231007  RH  080%=      5-min Rain = 0
KCA1 072358Z 03003KT 02/M01 A3044 RMK A01 T00231007  RH  081%=      5-min Rain = 0
KCA1 072359Z 03003KT 02/M01 A3044 RMK A01 T00231006  RH  081%=      5-min Rain = 0
KCA1 080000Z 03003KT 02/M01 A3044 RMK A01 T00231006  RH  081%=      5-min Rain = 0
KCA1 080001Z 03002KT 02/M01 A3044 RMK A01 T00231007  RH  080%=      5-min Rain = 0
KCA1 080002Z 03002KT 02/M01 A3044 RMK A01 T00231006  RH  081%=      5-min Rain = 0
KCA1 080003Z 03002KT 02/M01 A3044 RMK A01 T00231005  RH  082%=      5-min Rain = 0
KCA1 080004Z 03002KT 02/M01 A3044 RMK A01 T00231005  RH  082%=      5-min Rain = 0
KCA1 080005Z 04002KT 02/M01 A3044 RMK A01 T00231005  RH  082%=      5-min Rain = 0
KCA1 080006Z 03002KT 02/M01 A3044 RMK A01 T00231006  RH  082%=      5-min Rain = 0
KCA1 080007Z 03002KT 02/M01 A3044 RMK A01 T00231005  RH  082%=      5-min Rain = 0
KCA1 080008Z 03002KT 02/M01 A3044 RMK A01 T00231005  RH  082%=      5-min Rain = 0
KCA1 080009Z 03002KT 02/M00 A3044 RMK A01 T00231004  RH  083%=      5-min Rain = 0
KCA1 080010Z 03002KT 02/M00 A3044 RMK A01 T00231004  RH  083%=      5-min Rain = 0
KCA1 080011Z 04002KT 02/M01 A3044 RMK A01 T00231005  RH  082%=      5-min Rain = 0
KCA1 080012Z 04002KT 02/M00 A3044 RMK A01 T00231004  RH  082%=      5-min Rain = 0
KCA1 080013Z 04002KT 02/M00 A3045 RMK A01 T00231004  RH  083%=      5-min Rain = 0
KCA1 080014Z 04002KT 02/M00 A3044 RMK A01 T00231004  RH  082%=      5-min Rain = 0
KCA1 080015Z 04002KT 02/M00 A3044 RMK A01 T00231004  RH  083%=      5-min Rain = 0
KCA1 080016Z 03002KT 02/M00 A3044 RMK A01 T00231004  RH  083%=      5-min Rain = 0
KCA1 080017Z 02002KT 02/M00 A3044 RMK A01 T00231004  RH  083%=      5-min Rain = 0
KCA1 080018Z 03002KT 02/M00 A3044 RMK A01 T00231003  RH  083%=      5-min Rain = 0
KCA1 080019Z 03002KT 02/M00 A3044 RMK A01 T00231003  RH  083%=      5-min Rain = 0
KCA1 080020Z 03002KT 02/M00 A3044 RMK A01 T00231003  RH  083%=      5-min Rain = 0
KCA1 080021Z 03002KT 02/M00 A3044 RMK A01 T00231003  RH  083%=      5-min Rain = 0
KCA1 080022Z 03002KT 02/M00 A3044 RMK A01 T00231003  RH  083%=      5-min Rain = 0
KCA1 080023Z 03002KT 02/M00 A3045 RMK A01 T00231003  RH  083%=      5-min Rain = 0
KCA1 080024Z 04002KT 02/M00 A3045 RMK A01 T00231002  RH  083%=      5-min Rain = 0
KCA1 080025Z 04002KT 02/M00 A3045 RMK A01 T00231002  RH  083%=      5-min Rain = 0
KCA1 080026Z 05002KT 02/M00 A3045 RMK A01 T00231002  RH  084%=      5-min Rain = 0
KCA1 080027Z 05002KT 02/M00 A3045 RMK A01 T00231002  RH  084%=      5-min Rain = 0
KCA1 080028Z 05002KT 02/M00 A3045 RMK A01 T00231002  RH  084%=      5-min Rain = 0
KCA1 080029Z 05002KT 02/M00 A3045 RMK A01 T00231001  RH  084%=      5-min Rain = 0
KCA1 080030Z 05002KT 02/M00 A3045 RMK A01 T00231001  RH  084%=      5-min Rain = 0
KCA1 080031Z 06002KT 02/M00 A3045 RMK A01 T00231002  RH  084%=      5-min Rain = 0
KCA1 080032Z 06002KT 02/M00 A3045 RMK A01 T00231001  RH  084%=      5-min Rain = 0
KCA1 080033Z 07002KT 02/M00 A3045 RMK A01 T00231002  RH  084%=      5-min Rain = 0
KCA1 080034Z 07002KT 02/M00 A3045 RMK A01 T00231001  RH  084%=      5-min Rain = 0
KCA1 080035Z 07002KT 02/M00 A3045 RMK A01 T00231001  RH  085%=      5-min Rain = 0
KCA1 080036Z 08002KT 02/00 A3045 RMK A01 T002300-0  RH  085%=      5-min Rain = 0
KCA1 080037Z 09002KT 02/M00 A3045 RMK A01 T00231001  RH  084%=      5-min Rain = 0
KCA1 080038Z 09002KT 02/M00 A3045 RMK A01 T00231001  RH  084%=      5-min Rain = 0
KCA1 080039Z 09002KT 02/00 A3045 RMK A01 T002300-0  RH  085%=      5-min Rain = 0
KCA1 080040Z 10002KT 02/00 A3045 RMK A01 T00230000  RH  085%=      5-min Rain = 0
KCA1 080041Z 10002KT 02/00 A3045 RMK A01 T00220000  RH  085%=      5-min Rain = 0
KCA1 080042Z 10002KT 02/00 A3045 RMK A01 T00220000  RH  085%=      5-min Rain = 0
KCA1 080043Z 10002KT 02/00 A3045 RMK A01 T002200-0  RH  085%=      5-min Rain = 0
KCA1 080044Z 11001KT 02/00 A3045 RMK A01 T002200-0  RH  085%=      5-min Rain = 0
KCA1 080045Z 11002KT 02/00 A3045 RMK A01 T00210000  RH  086%=      5-min Rain = 0
KCA1 080046Z 11002KT 02/00 A3045 RMK A01 T00210000  RH  086%=      5-min Rain = 0
KCA1 080047Z 11002KT 02/M00 A3045 RMK A01 T00211001  RH  086%=      5-min Rain = 0
KCA1 080048Z 11002KT 02/M00 A3045 RMK A01 T00211001  RH  085%=      5-min Rain = 0
KCA1 080049Z 11002KT 02/M00 A3045 RMK A01 T00211001  RH  086%=      5-min Rain = 0
KCA1 080050Z 11002KT 02/M00 A3045 RMK A01 T00201002  RH  086%=      5-min Rain = 0
KCA1 080051Z 11002KT 02/M00 A3045 RMK A01 T00201002  RH  085%=      5-min Rain = 0
KCA1 080052Z 11001KT 02/M00 A3045 RMK A01 T00201002  RH  085%=      5-min Rain = 0
KCA1 080053Z 11001KT 02/M00 A3045 RMK A01 T00201003  RH  084%=      5-min Rain = 0
KCA1 080054Z 11002KT 02/M00 A3045 RMK A01 T00201003  RH  084%=      5-min Rain = 0
KCA1 080055Z 11001KT 02/M00 A3045 RMK A01 T00201004  RH  084%=      5-min Rain = 0
KCA1 080056Z 11002KT 02/M00 A3045 RMK A01 T00201004  RH  084%=      5-min Rain = 0
KCA1 080057Z 11002KT 02/M01 A3045 RMK A01 T00201005  RH  084%=      5-min Rain = 0
KCA1 080058Z 10002KT 02/M01 A3045 RMK A01 T00201005  RH  083%=      5-min Rain = 0
KCA1 080059Z 10002KT 02/M01 A3045 RMK A01 T00201006  RH  083%=      5-min Rain = 0
KCA1 080100Z 10002KT 02/M01 A3045 RMK A01 T00201006  RH  083%=      5-min Rain = 0
KCA1 080101Z 10002KT 02/M01 A3045 RMK A01 T00201007  RH  083%=      5-min Rain = 0
KCA1 080102Z 10001KT 02/M01 A3045 RMK A01 T00191007  RH  083%=      5-min Rain = 0
KCA1 080103Z 10001KT 02/M01 A3045 RMK A01 T00201007  RH  083%=      5-min Rain = 0
KCA1 080104Z 10001KT 02/M01 A3045 RMK A01 T00191007  RH  083%=      5-min Rain = 0
KCA1 080105Z 10002KT 02/M01 A3045 RMK A01 T00201006  RH  083%=      5-min Rain = 0
KCA1 080106Z 09002KT 02/M01 A3045 RMK A01 T00191007  RH  082%=      5-min Rain = 0
KCA1 080107Z 09002KT 02/M01 A3045 RMK A01 T00201008  RH  082%=      5-min Rain = 0
KCA1 080108Z 09002KT 02/M01 A3045 RMK A01 T00191009  RH  081%=      5-min Rain = 0
KCA1 080109Z 09002KT 02/M01 A3045 RMK A01 T00201009  RH  081%=      5-min Rain = 0
KCA1 080110Z 09002KT 02/M01 A3045 RMK A01 T00191010  RH  081%=      5-min Rain = 0
KCA1 080111Z 10002KT 02/M01 A3045 RMK A01 T00191010  RH  081%=      5-min Rain = 0
KCA1 080112Z 11002KT 02/M01 A3045 RMK A01 T00191010  RH  081%=      5-min Rain = 0
KCA1 080113Z 11002KT 02/M01 A3045 RMK A01 T00191011  RH  080%=      5-min Rain = 0
KCA1 080114Z 11002KT 02/M01 A3045 RMK A01 T00191011  RH  080%=      5-min Rain = 0
KCA1 080115Z 11002KT 02/M01 A3045 RMK A01 T00191011  RH  080%=      5-min Rain = 0
KCA1 080116Z 11002KT 02/M01 A3045 RMK A01 T00191011  RH  081%=      5-min Rain = 0
KCA1 080117Z 11002KT 02/M01 A3044 RMK A01 T00181011  RH  081%=      5-min Rain = 0
KCA1 080118Z 11002KT 02/M01 A3044 RMK A01 T00181010  RH  081%=      5-min Rain = 0
KCA1 080119Z 12002KT 02/M01 A3044 RMK A01 T00181010  RH  082%=      5-min Rain = 0
KCA1 080120Z 12002KT 02/M01 A3044 RMK A01 T00171010  RH  082%=      5-min Rain = 0
KCA1 080121Z 13002KT 02/M01 A3044 RMK A01 T00171010  RH  082%=      5-min Rain = 0
KCA1 080122Z 13002KT 02/M01 A3044 RMK A01 T00171010  RH  082%=      5-min Rain = 0
KCA1 080123Z 13002KT 02/M01 A3044 RMK A01 T00161010  RH  083%=      5-min Rain = 0
KCA1 080124Z 13002KT 02/M01 A3044 RMK A01 T00161010  RH  083%=      5-min Rain = 0
KCA1 080125Z 13002KT 02/M01 A3044 RMK A01 T00151010  RH  083%=      5-min Rain = 0
KCA1 080126Z 13002KT 02/M01 A3044 RMK A01 T00151011  RH  083%=      5-min Rain = 0
KCA1 080127Z 13002KT 01/M01 A3044 RMK A01 T00141010  RH  084%=      5-min Rain = 0
KCA1 080128Z 13003KT 01/M01 A3044 RMK A01 T00131010  RH  084%=      5-min Rain = 0
KCA1 080129Z 13003KT 01/M01 A3044 RMK A01 T00131010  RH  085%=      5-min Rain = 0
KCA1 080130Z 13002KT 01/M01 A3044 RMK A01 T00131009  RH  085%=      5-min Rain = 0
KCA1 080131Z 13002KT 01/M01 A3045 RMK A01 T00131009  RH  085%=      5-min Rain = 0
KCA1 080132Z 14002KT 01/M01 A3045 RMK A01 T00131009  RH  085%=      5-min Rain = 0
KCA1 080133Z 14002KT 01/M01 A3044 RMK A01 T00141008  RH  085%=      5-min Rain = 0
KCA1 080134Z 14002KT 01/M01 A3044 RMK A01 T00141008  RH  085%=      5-min Rain = 0
KCA1 080135Z 14002KT 01/M01 A3044 RMK A01 T00141008  RH  085%=      5-min Rain = 0
KCA1 080136Z 14002KT 01/M01 A3044 RMK A01 T00141008  RH  085%=      5-min Rain = 0
KCA1 080137Z 15002KT 01/M01 A3044 RMK A01 T00131009  RH  085%=      5-min Rain = 0
KCA1 080138Z 15002KT 01/M01 A3044 RMK A01 T00141008  RH  085%=      5-min Rain = 0
KCA1 080139Z 15002KT 01/M01 A3044 RMK A01 T00141008  RH  085%=      5-min Rain = 0
KCA1 080140Z 16002KT 01/M01 A3044 RMK A01 T00141008  RH  086%=      5-min Rain = 0
KCA1 080141Z 16002KT 01/M01 A3044 RMK A01 T00141008  RH  086%=      5-min Rain = 0
KCA1 080142Z 16002KT 01/M01 A3044 RMK A01 T00141007  RH  086%=      5-min Rain = 0
KCA1 080143Z 16002KT 01/M01 A3045 RMK A01 T00141007  RH  086%=      5-min Rain = 0
KCA1 080144Z 16002KT 01/M01 A3045 RMK A01 T00141007  RH  086%=      5-min Rain = 0
KCA1 080145Z 16002KT 01/M01 A3045 RMK A01 T00141007  RH  086%=      5-min Rain = 0
KCA1 080146Z 16002KT 01/M01 A3045 RMK A01 T00141007  RH  086%=      5-min Rain = 0
KCA1 080147Z 16001KT 01/M01 A3045 RMK A01 T00141006  RH  086%=      5-min Rain = 0
KCA1 080148Z 16002KT 01/M01 A3045 RMK A01 T00141006  RH  086%=      5-min Rain = 0
KCA1 080149Z 17002KT 02/M01 A3045 RMK A01 T00151006  RH  086%=      5-min Rain = 0
KCA1 080150Z 17002KT 01/M01 A3045 RMK A01 T00141006  RH  086%=      5-min Rain = 0
KCA1 080151Z 17002KT 02/M01 A3045 RMK A01 T00151006  RH  086%=      5-min Rain = 0
KCA1 080152Z 17002KT 02/M01 A3045 RMK A01 T00161005  RH  086%=      5-min Rain = 0
KCA1 080153Z 17002KT 02/M01 A3045 RMK A01 T00161006  RH  086%=      5-min Rain = 0
KCA1 080154Z 18002KT 02/M01 A3045 RMK A01 T00171006  RH  085%=      5-min Rain = 0
KCA1 080155Z 18002KT 02/M01 A3045 RMK A01 T00171005  RH  085%=      5-min Rain = 0
KCA1 080156Z 18002KT 02/M01 A3045 RMK A01 T00171005  RH  085%=      5-min Rain = 0
KCA1 080157Z 18001KT 02/M01 A3045 RMK A01 T00171005  RH  085%=      5-min Rain = 0
KCA1 080158Z 18001KT 02/M01 A3045 RMK A01 T00171005  RH  085%=      5-min Rain = 0
KCA1 080159Z 18001KT 02/M01 A3045 RMK A01 T00171005  RH  085%=      5-min Rain = 0
KCA1 080200Z 18001KT 02/M00 A3045 RMK A01 T00171004  RH  086%=      5-min Rain = 0
KCA1 080201Z 18001KT 02/M00 A3045 RMK A01 T00171004  RH  086%=      5-min Rain = 0
KCA1 080202Z 18001KT 02/M00 A3045 RMK A01 T00171004  RH  086%=      5-min Rain = 0
KCA1 080203Z 18000KT 02/M00 A3045 RMK A01 T00171004  RH  086%=      5-min Rain = 0
KCA1 080204Z 18000KT 02/M00 A3045 RMK A01 T00171004  RH  086%=      5-min Rain = 0
KCA1 080205Z 17001KT 02/M01 A3045 RMK A01 T00171005  RH  085%=      5-min Rain = 0
KCA1 080206Z 17001KT 02/M01 A3045 RMK A01 T00181005  RH  085%=      5-min Rain = 0
KCA1 080207Z 18002KT 02/M00 A3045 RMK A01 T00181003  RH  086%=      5-min Rain = 0
KCA1 080208Z 18002KT 02/M00 A3045 RMK A01 T00181003  RH  086%=      5-min Rain = 0
KCA1 080209Z 18002KT 02/M00 A3045 RMK A01 T00181004  RH  086%=      5-min Rain = 0
KCA1 080210Z 18002KT 02/M00 A3045 RMK A01 T00181004  RH  085%=      5-min Rain = 0
KCA1 080211Z 18001KT 02/M00 A3045 RMK A01 T00181003  RH  086%=      5-min Rain = 0
KCA1 080212Z 18001KT 02/M00 A3045 RMK A01 T00181001  RH  087%=      5-min Rain = 0
KCA1 080213Z 18001KT 02/M00 A3045 RMK A01 T00181001  RH  087%=      5-min Rain = 0
KCA1 080214Z 18000KT 02/M00 A3045 RMK A01 T00181003  RH  086%=      5-min Rain = 0
KCA1 080215Z 00000KT 02/M00 A3045 RMK A01 T00181003  RH  086%=      5-min Rain = 0
KCA1 080216Z 00000KT 02/M00 A3045 RMK A01 T00181002  RH  086%=      5-min Rain = 0
KCA1 080217Z 18000KT 02/M00 A3045 RMK A01 T00181003  RH  086%=      5-min Rain = 0
KCA1 080218Z 18000KT 02/M00 A3045 RMK A01 T00181003  RH  086%=      5-min Rain = 0
KCA1 080219Z 18000KT 02/M00 A3045 RMK A01 T00181003  RH  086%=      5-min Rain = 0
KCA1 080220Z 00000KT 02/M00 A3045 RMK A01 T00181002  RH  087%=      5-min Rain = 0
KCA1 080221Z 18000KT 02/M00 A3046 RMK A01 T00181001  RH  087%=      5-min Rain = 0
KCA1 080222Z 00000KT 02/00 A3046 RMK A01 T00180000  RH  088%=      5-min Rain = 0
KCA1 080223Z 00000KT 02/00 A3046 RMK A01 T00180002  RH  089%=      5-min Rain = 0
KCA1 080224Z 00000KT 02/00 A3046 RMK A01 T00180004  RH  090%=      5-min Rain = 0
KCA1 080225Z 00000KT 02/01 A3046 RMK A01 T00180005  RH  091%=      5-min Rain = 0
KCA1 080226Z 00000KT 02/01 A3046 RMK A01 T00180006  RH  092%=      5-min Rain = 0
KCA1 080227Z 00000KT 02/01 A3046 RMK A01 T00180006  RH  092%=      5-min Rain = 0.01
KCA1 080228Z 00000KT 02/01 A3046 RMK A01 T00180006  RH  092%=      5-min Rain = 0
KCA1 080229Z 00000KT 02/01 A3046 RMK A01 T00180006  RH  092%=      5-min Rain = 0
KCA1 080230Z 00000KT 02/01 A3046 RMK A01 T00180006  RH  092%=      5-min Rain = 0
KCA1 080231Z 00000KT 02/01 A3046 RMK A01 T00170006  RH  092%=      5-min Rain = 0
KCA1 080232Z 00000KT 02/01 A3046 RMK A01 T00170005  RH  091%=      5-min Rain = 0
KCA1 080233Z 00000KT 02/00 A3046 RMK A01 T00170004  RH  091%=      5-min Rain = 0
KCA1 080234Z 00000KT 02/00 A3046 RMK A01 T00170003  RH  090%=      5-min Rain = 0
KCA1 080235Z 00000KT 02/00 A3046 RMK A01 T00170002  RH  090%=      5-min Rain = 0
KCA1 080236Z 00000KT 02/00 A3046 RMK A01 T00170001  RH  089%=      5-min Rain = 0
KCA1 080237Z 24000KT 02/00 A3046 RMK A01 T00170001  RH  089%=      5-min Rain = 0
KCA1 080238Z 24001KT 02/00 A3046 RMK A01 T00170001  RH  089%=      5-min Rain = 0
KCA1 080239Z 24001KT 02/00 A3046 RMK A01 T00170002  RH  090%=      5-min Rain = 0
KCA1 080240Z 26001KT 02/00 A3046 RMK A01 T00170004  RH  091%=      5-min Rain = 0
KCA1 080241Z 28001KT 02/01 A3046 RMK A01 T00180005  RH  091%=      5-min Rain = 0
KCA1 080242Z 29001KT 02/01 A3046 RMK A01 T00180005  RH  091%=      5-min Rain = 0
KCA1 080243Z 29001KT 02/01 A3046 RMK A01 T00180005  RH  091%=      5-min Rain = 0
KCA1 080244Z 29001KT 02/00 A3046 RMK A01 T00180004  RH  091%=      5-min Rain = 0
KCA1 080245Z 29000KT 02/00 A3046 RMK A01 T00180004  RH  091%=      5-min Rain = 0
KCA1 080246Z 29000KT 02/00 A3046 RMK A01 T00180004  RH  091%=      5-min Rain = 0
KCA1 080247Z 29000KT 02/00 A3046 RMK A01 T00180004  RH  091%=      5-min Rain = 0
KCA1 080248Z 00000KT 02/00 A3046 RMK A01 T00180003  RH  090%=      5-min Rain = 0
KCA1 080249Z 00000KT 02/00 A3046 RMK A01 T00180001  RH  089%=      5-min Rain = 0
KCA1 080250Z 00000KT 02/00 A3046 RMK A01 T00180000  RH  088%=      5-min Rain = 0
KCA1 080251Z 00000KT 02/00 A3046 RMK A01 T00180002  RH  089%=      5-min Rain = 0
KCA1 080252Z 00000KT 02/00 A3046 RMK A01 T00180004  RH  091%=      5-min Rain = 0
KCA1 080253Z 00000KT 02/01 A3046 RMK A01 T00180005  RH  091%=      5-min Rain = 0
KCA1 080254Z 00000KT 02/01 A3046 RMK A01 T00180005  RH  091%=      5-min Rain = 0
KCA1 080255Z 00000KT 02/00 A3046 RMK A01 T00180004  RH  090%=      5-min Rain = 0
KCA1 080256Z 00000KT 02/00 A3046 RMK A01 T00180004  RH  090%=      5-min Rain = 0
KCA1 080257Z 00000KT 02/00 A3046 RMK A01 T00180004  RH  090%=      5-min Rain = 0
KCA1 080258Z 00000KT 02/00 A3046 RMK A01 T00180004  RH  091%=      5-min Rain = 0
KCA1 080259Z 00000KT 02/00 A3046 RMK A01 T00180004  RH  090%=      5-min Rain = 0
KCA1 080300Z 00000KT 02/00 A3046 RMK A01 T00180004  RH  090%=      5-min Rain = 0
KCA1 080301Z 00000KT 02/00 A3046 RMK A01 T00180004  RH  090%=      5-min Rain = 0
KCA1 080302Z 00000KT 02/00 A3046 RMK A01 T00180003  RH  090%=      5-min Rain = 0
KCA1 080303Z 00000KT 02/00 A3046 RMK A01 T00180003  RH  090%=      5-min Rain = 0
KCA1 080304Z 00000KT 02/00 A3046 RMK A01 T00180002  RH  089%=      5-min Rain = 0
KCA1 080305Z 29000KT 02/00 A3046 RMK A01 T00180002  RH  089%=      5-min Rain = 0
KCA1 080306Z 00000KT 02/00 A3046 RMK A01 T00190002  RH  089%=      5-min Rain = 0
KCA1 080307Z 00000KT 02/00 A3046 RMK A01 T00190003  RH  089%=      5-min Rain = 0
KCA1 080308Z 00000KT 02/00 A3046 RMK A01 T00190004  RH  090%=      5-min Rain = 0
KCA1 080309Z 00000KT 02/01 A3046 RMK A01 T00190005  RH  090%=      5-min Rain = 0
KCA1 080310Z 00000KT 02/01 A3046 RMK A01 T00190005  RH  090%=      5-min Rain = 0
KCA1 080311Z 29000KT 02/01 A3046 RMK A01 T00190006  RH  091%=      5-min Rain = 0
KCA1 080312Z 29000KT 02/01 A3046 RMK A01 T00190005  RH  090%=      5-min Rain = 0
KCA1 080313Z 29000KT 02/00 A3046 RMK A01 T00190002  RH  088%=      5-min Rain = 0
KCA1 080314Z 29000KT 02/M00 A3046 RMK A01 T00191001  RH  087%=      5-min Rain = 0
KCA1 080315Z 29000KT 02/00 A3046 RMK A01 T00190001  RH  088%=      5-min Rain = 0
KCA1 080316Z 32001KT 02/00 A3046 RMK A01 T00190003  RH  089%=      5-min Rain = 0
KCA1 080317Z 32001KT 02/00 A3046 RMK A01 T00190003  RH  089%=      5-min Rain = 0
KCA1 080318Z 32001KT 02/00 A3046 RMK A01 T00190004  RH  090%=      5-min Rain = 0
KCA1 080319Z 32001KT 02/00 A3046 RMK A01 T00190004  RH  090%=      5-min Rain = 0
KCA1 080320Z 32001KT 02/00 A3046 RMK A01 T00190004  RH  090%=      5-min Rain = 0
KCA1 080321Z 32000KT 02/00 A3046 RMK A01 T00200004  RH  090%=      5-min Rain = 0
KCA1 080322Z 00000KT 02/00 A3046 RMK A01 T00200003  RH  089%=      5-min Rain = 0
KCA1 080323Z 32000KT 02/00 A3046 RMK A01 T00200001  RH  087%=      5-min Rain = 0
KCA1 080324Z 33000KT 02/00 A3046 RMK A01 T00200001  RH  087%=      5-min Rain = 0
KCA1 080325Z 33000KT 02/00 A3046 RMK A01 T00200002  RH  088%=      5-min Rain = 0
KCA1 080326Z 33000KT 02/00 A3046 RMK A01 T00200003  RH  088%=      5-min Rain = 0
KCA1 080327Z 33000KT 02/00 A3046 RMK A01 T00200003  RH  088%=      5-min Rain = 0
KCA1 080328Z 00000KT 02/00 A3046 RMK A01 T00200003  RH  089%=      5-min Rain = 0
KCA1 080329Z 33000KT 02/00 A3046 RMK A01 T00200004  RH  089%=      5-min Rain = 0
KCA1 080330Z 33000KT 02/00 A3046 RMK A01 T00200004  RH  089%=      5-min Rain = 0
KCA1 080331Z 33001KT 02/00 A3046 RMK A01 T00200004  RH  089%=      5-min Rain = 0
KCA1 080332Z 33000KT 02/00 A3046 RMK A01 T00200004  RH  089%=      5-min Rain = 0
KCA1 080333Z 00000KT 02/00 A3046 RMK A01 T00200003  RH  089%=      5-min Rain = 0
KCA1 080334Z 00000KT 02/00 A3046 RMK A01 T00210003  RH  088%=      5-min Rain = 0
KCA1 080335Z 00000KT 02/00 A3046 RMK A01 T00210003  RH  088%=      5-min Rain = 0
KCA1 080336Z 00000KT 02/00 A3046 RMK A01 T00210003  RH  088%=      5-min Rain = 0
KCA1 080337Z 00000KT 02/00 A3046 RMK A01 T00210003  RH  088%=      5-min Rain = 0
KCA1 080338Z 00000KT 02/01 A3046 RMK A01 T00210005  RH  089%=      5-min Rain = 0
KCA1 080339Z 00000KT 02/01 A3046 RMK A01 T00210005  RH  089%=      5-min Rain = 0
KCA1 080340Z 00000KT 02/00 A3046 RMK A01 T00210004  RH  089%=      5-min Rain = 0
KCA1 080341Z 00000KT 02/00 A3046 RMK A01 T00210004  RH  089%=      5-min Rain = 0
KCA1 080342Z 00000KT 02/00 A3046 RMK A01 T00210003  RH  088%=      5-min Rain = 0
KCA1 080343Z 00000KT 02/00 A3046 RMK A01 T00210003  RH  088%=      5-min Rain = 0
KCA1 080344Z 00000KT 02/00 A3046 RMK A01 T00210002  RH  087%=      5-min Rain = 0
KCA1 080345Z 00000KT 02/00 A3046 RMK A01 T002100-0  RH  086%=      5-min Rain = 0
KCA1 080346Z 00000KT 02/M00 A3046 RMK A01 T00211001  RH  085%=      5-min Rain = 0
KCA1 080347Z 00000KT 02/M00 A3046 RMK A01 T00211001  RH  085%=      5-min Rain = 0
KCA1 080348Z 00000KT 02/00 A3046 RMK A01 T002200-0  RH  085%=      5-min Rain = 0
KCA1 080349Z 00000KT 02/00 A3046 RMK A01 T002200-0  RH  085%=      5-min Rain = 0
KCA1 080350Z 33000KT 02/00 A3046 RMK A01 T00220000  RH  086%=      5-min Rain = 0
KCA1 080351Z 33000KT 02/00 A3046 RMK A01 T00220001  RH  086%=      5-min Rain = 0
KCA1 080352Z 33000KT 02/00 A3046 RMK A01 T00220000  RH  085%=      5-min Rain = 0
KCA1 080353Z 34001KT 02/M00 A3047 RMK A01 T00221002  RH  084%=      5-min Rain = 0
KCA1 080354Z 13001KT 02/M00 A3047 RMK A01 T00231003  RH  083%=      5-min Rain = 0
KCA1 080355Z 13001KT 02/M01 A3047 RMK A01 T00231005  RH  082%=      5-min Rain = 0
KCA1 080356Z 13000KT 02/M00 A3047 RMK A01 T00231004  RH  082%=      5-min Rain = 0
KCA1 080357Z 13000KT 02/M00 A3047 RMK A01 T00231002  RH  083%=      5-min Rain = 0
KCA1 080358Z 13000KT 02/M00 A3047 RMK A01 T00231002  RH  083%=      5-min Rain = 0
KCA1 080359Z 00000KT 02/M00 A3047 RMK A01 T00231003  RH  083%=      5-min Rain = 0
KCA1 080400Z 13000KT 02/M00 A3047 RMK A01 T00231002  RH  083%=      5-min Rain = 0
KCA1 080401Z 13000KT 02/00 A3047 RMK A01 T00240000  RH  084%=      5-min Rain = 0
KCA1 080402Z 13000KT 02/00 A3047 RMK A01 T00240001  RH  085%=      5-min Rain = 0
KCA1 080403Z 13000KT 02/00 A3047 RMK A01 T00240001  RH  085%=      5-min Rain = 0
KCA1 080404Z 13000KT 02/00 A3047 RMK A01 T00240001  RH  085%=      5-min Rain = 0
KCA1 080405Z 14001KT 02/00 A3047 RMK A01 T00240001  RH  085%=      5-min Rain = 0
KCA1 080406Z 14001KT 02/00 A3047 RMK A01 T00240001  RH  085%=      5-min Rain = 0
KCA1 080407Z 15001KT 02/00 A3047 RMK A01 T00240000  RH  084%=      5-min Rain = 0
KCA1 080408Z 15001KT 02/M00 A3047 RMK A01 T00241002  RH  083%=      5-min Rain = 0
KCA1 080409Z 15001KT 02/M00 A3047 RMK A01 T00241003  RH  082%=      5-min Rain = 0
KCA1 080410Z 15001KT 02/M00 A3047 RMK A01 T00241003  RH  083%=      5-min Rain = 0
KCA1 080411Z 15001KT 02/M00 A3047 RMK A01 T00241001  RH  083%=      5-min Rain = 0
KCA1 080412Z 15001KT 02/M00 A3047 RMK A01 T00241001  RH  084%=      5-min Rain = 0
KCA1 080413Z 15001KT 02/M00 A3047 RMK A01 T00241003  RH  083%=      5-min Rain = 0
KCA1 080414Z 15001KT 02/M00 A3047 RMK A01 T00241003  RH  082%=      5-min Rain = 0
KCA1 080415Z 15001KT 02/M00 A3047 RMK A01 T00241001  RH  084%=      5-min Rain = 0
KCA1 080416Z 15001KT 02/00 A3047 RMK A01 T00240001  RH  085%=      5-min Rain = 0
KCA1 080417Z 15001KT 02/00 A3047 RMK A01 T00240004  RH  086%=      5-min Rain = 0
KCA1 080418Z 15001KT 02/00 A3047 RMK A01 T00240004  RH  087%=      5-min Rain = 0
KCA1 080419Z 16001KT 02/00 A3047 RMK A01 T00240004  RH  087%=      5-min Rain = 0
KCA1 080420Z 16001KT 02/00 A3047 RMK A01 T00240003  RH  086%=      5-min Rain = 0
KCA1 080421Z 16001KT 02/00 A3047 RMK A01 T00230001  RH  086%=      5-min Rain = 0
KCA1 080422Z 16000KT 02/00 A3047 RMK A01 T00230003  RH  086%=      5-min Rain = 0
KCA1 080423Z 16000KT 02/00 A3047 RMK A01 T00230002  RH  086%=      5-min Rain = 0
KCA1 080424Z 16000KT 02/M00 A3047 RMK A01 T00231004  RH  082%=      5-min Rain = 0
KCA1 080425Z 16001KT 02/M01 A3047 RMK A01 T00231006  RH  081%=      5-min Rain = 0
KCA1 080426Z 16001KT 02/M00 A3047 RMK A01 T00231004  RH  082%=      5-min Rain = 0
KCA1 080427Z 00000KT 02/M01 A3047 RMK A01 T00231006  RH  081%=      5-min Rain = 0
KCA1 080428Z 00000KT 02/M01 A3047 RMK A01 T00231005  RH  082%=      5-min Rain = 0
KCA1 080429Z 00000KT 02/M00 A3047 RMK A01 T00231002  RH  083%=      5-min Rain = 0
KCA1 080430Z 00000KT 02/M00 A3047 RMK A01 T00231002  RH  084%=      5-min Rain = 0
KCA1 080431Z 00000KT 02/M00 A3047 RMK A01 T00231001  RH  084%=      5-min Rain = 0
KCA1 080432Z 16000KT 02/M00 A3047 RMK A01 T00231001  RH  084%=      5-min Rain = 0
KCA1 080433Z 16000KT 02/M00 A3047 RMK A01 T00231004  RH  082%=      5-min Rain = 0
KCA1 080434Z 16000KT 02/M01 A3046 RMK A01 T00231006  RH  081%=      5-min Rain = 0
KCA1 080435Z 16000KT 02/M00 A3046 RMK A01 T00231003  RH  083%=      5-min Rain = 0
KCA1 080436Z 16000KT 02/00 A3046 RMK A01 T002300-0  RH  085%=      5-min Rain = 0
KCA1 080437Z 14001KT 02/00 A3046 RMK A01 T00230001  RH  085%=      5-min Rain = 0
KCA1 080438Z 14001KT 02/00 A3046 RMK A01 T00230001  RH  085%=      5-min Rain = 0
KCA1 080439Z 14001KT 02/00 A3046 RMK A01 T00230001  RH  085%=      5-min Rain = 0
KCA1 080440Z 14001KT 02/00 A3046 RMK A01 T00230000  RH  085%=      5-min Rain = 0
KCA1 080441Z 14001KT 02/00 A3046 RMK A01 T002300-0  RH  084%=      5-min Rain = 0
KCA1 080442Z 14000KT 02/00 A3046 RMK A01 T00230000  RH  085%=      5-min Rain = 0
KCA1 080443Z 14000KT 02/00 A3046 RMK A01 T002300-0  RH  084%=      5-min Rain = 0
KCA1 080444Z 00000KT 02/M00 A3046 RMK A01 T00231002  RH  084%=      5-min Rain = 0
KCA1 080445Z 14000KT 02/M00 A3046 RMK A01 T00231001  RH  084%=      5-min Rain = 0
KCA1 080446Z 13001KT 02/M00 A3046 RMK A01 T00231003  RH  083%=      5-min Rain = 0
KCA1 080447Z 13001KT 02/M00 A3046 RMK A01 T00231004  RH  082%=      5-min Rain = 0
KCA1 080448Z 13001KT 02/M00 A3046 RMK A01 T00231004  RH  082%=      5-min Rain = 0
KCA1 080449Z 13000KT 02/M00 A3046 RMK A01 T00231004  RH  082%=      5-min Rain = 0
KCA1 080450Z 13001KT 02/M00 A3046 RMK A01 T00231003  RH  083%=      5-min Rain = 0
KCA1 080451Z 13000KT 02/M01 A3046 RMK A01 T00231005  RH  081%=      5-min Rain = 0
KCA1 080452Z 13000KT 02/M01 A3046 RMK A01 T00231009  RH  079%=      5-min Rain = 0
KCA1 080453Z 13000KT 02/M01 A3046 RMK A01 T00231009  RH  079%=      5-min Rain = 0
KCA1 080454Z 13000KT 02/M01 A3046 RMK A01 T00231007  RH  080%=      5-min Rain = 0
KCA1 080455Z 00000KT 02/M01 A3046 RMK A01 T00231006  RH  081%=      5-min Rain = 0
KCA1 080456Z 09000KT 02/M00 A3046 RMK A01 T00231004  RH  082%=      5-min Rain = 0
KCA1 080457Z 09001KT 02/M00 A3046 RMK A01 T00231002  RH  083%=      5-min Rain = 0
KCA1 080458Z 09001KT 02/M00 A3046 RMK A01 T00231001  RH  084%=      5-min Rain = 0
KCA1 080459Z 09001KT 02/M00 A3046 RMK A01 T00231002  RH  083%=      5-min Rain = 0
KCA1 080500Z 09001KT 02/M00 A3046 RMK A01 T00231004  RH  082%=      5-min Rain = 0
KCA1 080501Z 09001KT 02/M00 A3046 RMK A01 T00231004  RH  082%=      5-min Rain = 0
KCA1 080502Z 09001KT 02/M00 A3046 RMK A01 T00231004  RH  082%=      5-min Rain = 0
KCA1 080503Z 00000KT 02/M00 A3046 RMK A01 T00231003  RH  083%=      5-min Rain = 0
KCA1 080504Z 00000KT 02/M00 A3046 RMK A01 T00231001  RH  084%=      5-min Rain = 0
KCA1 080505Z 00000KT 02/M00 A3046 RMK A01 T00231003  RH  083%=      5-min Rain = 0
KCA1 080506Z 09000KT 02/M00 A3046 RMK A01 T00231004  RH  083%=      5-min Rain = 0
KCA1 080507Z 09000KT 02/M00 A3046 RMK A01 T00231003  RH  083%=      5-min Rain = 0
KCA1 080508Z 09001KT 02/M00 A3046 RMK A01 T00231002  RH  083%=      5-min Rain = 0
KCA1 080509Z 09000KT 02/M00 A3046 RMK A01 T00231002  RH  083%=      5-min Rain = 0
KCA1 080510Z 00000KT 02/M00 A3046 RMK A01 T00231003  RH  083%=      5-min Rain = 0
KCA1 080511Z 00000KT 02/M01 A3046 RMK A01 T00231007  RH  081%=      5-min Rain = 0
KCA1 080512Z 00000KT 02/M01 A3046 RMK A01 T00231007  RH  080%=      5-min Rain = 0
KCA1 080513Z 00000KT 02/M01 A3046 RMK A01 T00231008  RH  080%=      5-min Rain = 0
KCA1 080514Z 00000KT 02/M01 A3046 RMK A01 T00231008  RH  080%=      5-min Rain = 0
KCA1 080515Z 00000KT 02/M01 A3046 RMK A01 T00231007  RH  081%=      5-min Rain = 0
KCA1 080516Z 00000KT 02/M01 A3046 RMK A01 T00231008  RH  080%=      5-min Rain = 0
KCA1 080517Z 00000KT 02/M01 A3046 RMK A01 T00231009  RH  079%=      5-min Rain = 0
KCA1 080518Z 00000KT 02/M01 A3046 RMK A01 T00231007  RH  080%=      5-min Rain = 0
KCA1 080519Z 00000KT 02/M01 A3046 RMK A01 T00231005  RH  082%=      5-min Rain = 0
KCA1 080520Z 00000KT 02/M00 A3046 RMK A01 T00231004  RH  082%=      5-min Rain = 0
KCA1 080521Z 00000KT 02/M00 A3046 RMK A01 T00231004  RH  082%=      5-min Rain = 0
KCA1 080522Z 00000KT 02/M00 A3046 RMK A01 T00231003  RH  083%=      5-min Rain = 0
KCA1 080523Z 00000KT 02/M00 A3046 RMK A01 T00231003  RH  083%=      5-min Rain = 0
KCA1 080524Z 00000KT 02/M00 A3046 RMK A01 T00231004  RH  082%=      5-min Rain = 0
KCA1 080525Z 00000KT 02/M01 A3046 RMK A01 T00231005  RH  082%=      5-min Rain = 0
KCA1 080526Z 00000KT 02/M01 A3046 RMK A01 T00231006  RH  081%=      5-min Rain = 0
KCA1 080527Z 00000KT 02/M01 A3046 RMK A01 T00231006  RH  081%=      5-min Rain = 0
KCA1 080528Z 00000KT 02/M01 A3046 RMK A01 T00231006  RH  081%=      5-min Rain = 0
KCA1 080529Z 00000KT 02/M01 A3046 RMK A01 T00231005  RH  082%=      5-min Rain = 0
KCA1 080530Z 00000KT 02/M01 A3045 RMK A01 T00231006  RH  081%=      5-min Rain = 0
KCA1 080531Z 00000KT 02/M01 A3045 RMK A01 T00231007  RH  081%=      5-min Rain = 0
KCA1 080532Z 00000KT 02/M01 A3045 RMK A01 T00231009  RH  079%=      5-min Rain = 0
KCA1 080533Z 00000KT 02/M01 A3045 RMK A01 T00231010  RH  078%=      5-min Rain = 0
KCA1 080534Z 00000KT 02/M01 A3045 RMK A01 T00231009  RH  079%=      5-min Rain = 0
KCA1 080535Z 00000KT 02/M01 A3045 RMK A01 T00241006  RH  081%=      5-min Rain = 0
KCA1 080536Z 00000KT 02/M01 A3045 RMK A01 T00241007  RH  080%=      5-min Rain = 0
KCA1 080537Z 00000KT 02/M01 A3045 RMK A01 T00241009  RH  079%=      5-min Rain = 0
KCA1 080538Z 00000KT 02/M01 A3045 RMK A01 T00241011  RH  078%=      5-min Rain = 0
KCA1 080539Z 00000KT 02/M01 A3045 RMK A01 T00241013  RH  076%=      5-min Rain = 0
KCA1 080540Z 00000KT 02/M01 A3045 RMK A01 T00241013  RH  077%=      5-min Rain = 0
KCA1 080541Z 00000KT 02/M01 A3045 RMK A01 T00241012  RH  078%=      5-min Rain = 0
KCA1 080542Z 00000KT 02/M01 A3045 RMK A01 T00241014  RH  076%=      5-min Rain = 0
KCA1 080543Z 00000KT 02/M01 A3045 RMK A01 T00241012  RH  077%=      5-min Rain = 0
KCA1 080544Z 00000KT 02/M01 A3045 RMK A01 T00241010  RH  078%=      5-min Rain = 0
KCA1 080545Z 00000KT 02/M01 A3045 RMK A01 T00241010  RH  078%=      5-min Rain = 0
KCA1 080546Z 00000KT 02/M01 A3045 RMK A01 T00241012  RH  077%=      5-min Rain = 0
KCA1 080547Z 00000KT 02/M02 A3045 RMK A01 T00241015  RH  076%=      5-min Rain = 0
KCA1 080548Z 00000KT 02/M01 A3045 RMK A01 T00241014  RH  076%=      5-min Rain = 0
KCA1 080549Z 00000KT 02/M01 A3045 RMK A01 T00241014  RH  076%=      5-min Rain = 0
KCA1 080550Z 00000KT 02/M01 A3045 RMK A01 T00241012  RH  077%=      5-min Rain = 0
KCA1 080551Z 00000KT 02/M01 A3045 RMK A01 T00241010  RH  078%=      5-min Rain = 0
KCA1 080552Z 00000KT 02/M01 A3045 RMK A01 T00241008  RH  079%=      5-min Rain = 0
KCA1 080553Z 00000KT 03/M01 A3045 RMK A01 T00251009  RH  079%=      5-min Rain = 0
KCA1 080554Z 00000KT 03/M01 A3045 RMK A01 T00251012  RH  076%=      5-min Rain = 0
KCA1 080555Z 00000KT 03/M01 A3045 RMK A01 T00251012  RH  077%=      5-min Rain = 0
KCA1 080556Z 00000KT 03/M01 A3045 RMK A01 T00251013  RH  076%=      5-min Rain = 0
KCA1 080557Z 00000KT 03/M01 A3045 RMK A01 T00251014  RH  076%=      5-min Rain = 0
KCA1 080558Z 00000KT 03/M01 A3045 RMK A01 T00251013  RH  076%=      5-min Rain = 0
KCA1 080559Z 00000KT 02/M02 A3045 RMK A01 T00241015  RH  075%=      5-min Rain = 0

Page generated in 0.0712 seconds.